GFSFLT2_con_mucape_000.txt.gz
CAPE
535 737 913 1042 1016 1116 1132 1218 1228 1028 935 852 752 621 392 189 117 52 7 0 0 0 0 0 0 3 29 99 137 232 160 282
555 643 600 546 618 843 1044 1051 983 877 746 657 711 554 374 142 136 7 0 0 0 0 0 0 0 0 0 0 0 17 115 225
627 621 762 1022 559 568 833 972 931 798 795 588 434 692 426 213 38 47 9 0 0 0 0 0 0 0 0 0 0 0 0 0
1119 936 933 442 88 484 980 626 818 911 832 889 951 731 559 219 283 192 181 125 65 0 0 0 0 0 0 0 0 0 0 0
1260 1502 1215 842 434 479 544 570 614 1203 1169 900 921 765 1075 775 717 365 294 160 231 2 0 0 0 0 0 0 0 0 0 0
1424 1402 1438 908 886 389 661 570 536 607 723 887 990 797 760 372 204 12 4 9 18 29 0 0 0 0 0 0 0 0 0 0
1068 1372 1297 1512 798 1222 1157 894 866 602 696 693 606 483 589 377 144 53 34 12 6 12 0 0 0 0 0 0 0 0 0 0
1414 1506 1338 790 687 799 1239 944 670 771 291 86 212 278 352 264 113 109 57 36 33 7 0 2 0 0 0 0 0 0 0 0
1365 1547 746 402 527 733 753 88 21 102 92 84 81 133 168 261 173 151 164 179 112 70 93 51 58 3 0 0 0 0 0 0
419 1094 829 313 547 172 219 250 182 124 203 178 119 117 149 202 184 196 225 304 176 167 127 88 73 64 51 12 0 0 0 0
807 633 482 61 196 176 193 166 146 87 29 85 38 31 157 127 110 182 235 186 157 207 171 159 171 156 145 87 46 44 29 0
664 555 73 62 146 179 44 34 60 57 26 0 0 12 16 63 49 121 259 172 113 164 262 148 154 151 144 125 144 92 44 47
488 345 271 145 165 22 0 0 0 0 0 0 0 2 0 0 0 0 0 0 33 54 38 36 40 127 142 142 103 127 240 164
244 72 43 47 47 5 0 0 0 0 0 0 0 0 0 0 0 0 0 0 0 21 72 15 0 0 64 64 6 0 53 101
77 66 68 63 35 2 0 0 0 0 0 0 0 0 0 0 0 0 0 0 0 0 2 2 3 0 0 35 10 6 2 7
20 9 7 12 8 0 0 0 0 0 0 0 0 0 0 0 0 0 0 0 0 0 0 3 0 0 0 0 0 7 0 0
0 0 0 0 0 0 0 0 0 0 0 0 0 0 0 0 0 0 0 0 0 1 5 22 13 4 3 1 6 20 20 11
0 0 0 0 0 0 1 0 0 0 0 0 0 0 0 0 0 0 0 0 6 21 15 21 19 18 22 12 5 0 3 0
0 0 0 0 7 3 0 0 0 0 0 0 0 0 0 0 0 0 1 8 26 25 22 29 15 3 5 5 9 0 0 0
0 0 0 0 0 0 0 0 0 0 0 0 0 0 0 0 5 1 8 0 2 1 0 23 30 26 21 14 3 0 0 1

GFSFLT2_con_mucape_003.txt.gz
CAPE
966 984 933 807 846 869 908 963 940 913 914 916 791 576 387 281 145 17 0 0 0 0 0 0 0 0 17 44 11 30 0 122
559 455 409 418 588 655 698 749 678 575 615 659 555 444 209 225 119 46 0 0 0 0 0 0 0 0 0 0 0 20 8 36
433 578 678 252 325 619 666 733 642 503 550 480 413 416 214 105 84 63 75 23 7 0 0 0 0 0 0 0 0 0 0 0
512 627 829 370 241 309 308 500 517 519 568 448 448 490 479 149 142 159 172 124 170 108 63 0 0 0 0 0 0 0 0 0
415 292 163 294 240 395 459 513 630 701 630 474 542 256 416 210 346 265 198 160 137 107 33 0 0 0 0 0 0 0 0 0
613 638 403 185 1 160 510 486 699 670 766 587 505 252 37 38 0 0 15 71 137 129 37 7 0 0 0 0 0 0 0 0
806 676 552 411 346 288 213 238 214 242 495 327 165 144 37 36 42 2 0 2 0 2 0 0 0 0 0 0 0 0 0 0
905 735 868 577 198 477 478 296 178 325 99 50 88 30 104 68 45 41 19 44 49 10 0 0 4 0 0 0 0 0 0 0
688 689 729 412 260 310 672 172 1 10 5 0 11 33 48 38 48 45 36 82 126 65 51 43 24 17 35 14 0 0 0 0
902 263 586 193 208 166 87 68 28 35 35 25 14 17 0 0 0 0 19 38 39 20 25 78 91 71 50 56 48 22 2 0
988 476 301 142 54 86 101 102 39 17 14 10 16 0 0 0 0 0 0 0 0 0 7 9 5 5 11 22 60 60 95 92
574 384 176 30 79 116 51 70 3 1 0 0 0 0 0 0 0 0 0 0 0 0 0 0 0 8 26 14 66 81 119 86
165 83 19 54 102 142 54 18 3 0 0 0 0 0 0 0 0 0 0 0 0 0 0 0 0 0 0 0 0 0 0 10
137 115 82 39 48 50 39 10 1 0 0 0 0 0 0 0 0 0 0 0 0 0 0 0 0 0 0 0 0 0 0 0
165 147 109 83 57 42 29 8 4 0 0 0 0 0 0 0 0 0 0 0 0 0 0 0 0 0 0 0 0 0 0 0
2 11 24 8 3 0 0 0 0 0 0 2 0 0 0 0 0 0 0 0 0 0 0 0 0 0 0 1 25 27 21 6
0 0 0 0 0 0 0 0 0 0 0 0 0 0 0 0 0 0 0 0 0 0 0 0 0 8 15 24 39 28 10 6
0 0 0 0 0 0 0 0 0 0 0 0 0 0 0 0 0 0 0 0 0 0 0 2 6 16 32 6 20 13 4 2
0 0 0 0 0 0 0 0 0 0 0 2 0 1 4 0 0 0 0 0 0 0 4 4 18 35 24 12 12 0 0 0
0 0 0 0 0 0 0 0 1 10 0 0 0 0 0 0 0 0 0 0 1 5 8 9 28 26 23 6 10 0 1 0

GFSFLT2_con_mucape_006.txt.gz
CAPE
1257 1130 1067 975 868 771 816 939 882 924 934 769 570 333 303 160 58 0 0 0 0 0 0 0 0 0 0 0 0 1 0 40
833 723 603 597 620 659 637 572 518 581 617 461 277 161 130 153 77 35 4 0 0 0 0 0 0 0 0 0 0 0 0 0
384 289 240 343 413 487 613 575 424 371 428 401 235 154 8 15 72 20 99 21 24 35 50 8 0 0 0 0 0 0 0 0
443 308 96 158 308 420 250 339 236 247 284 370 348 320 299 134 118 182 165 106 137 185 165 125 49 0 0 0 0 0 0 0
579 540 273 44 135 59 165 267 356 400 556 517 498 530 319 386 210 180 155 80 83 85 68 34 9 0 0 0 0 0 0 0
621 722 480 284 151 146 198 418 549 632 628 442 324 201 6 9 0 8 0 0 4 48 55 35 0 0 0 0 0 0 0 0
380 288 310 220 101 359 461 498 710 768 754 498 145 72 7 9 6 1 0 0 5 8 9 1 0 0 0 0 0 0 0 0
573 333 378 252 293 254 304 261 217 492 476 183 35 15 74 46 15 4 0 11 13 6 1 0 0 0 0 0 0 0 3 7
664 787 678 179 418 458 274 137 58 167 130 42 33 24 56 40 1 0 0 0 0 0 0 0 0 0 0 0 0 0 0 0
760 563 407 216 194 353 579 56 24 31 45 36 47 36 54 18 10 0 0 0 0 0 0 0 0 0 0 0 0 0 0 0
777 521 360 208 132 111 101 107 88 62 31 16 23 45 18 10 8 6 0 0 0 0 0 0 0 0 0 0 0 0 0 0
828 561 311 152 149 101 111 126 41 15 6 0 1 2 6 0 0 0 0 0 0 0 0 0 0 0 0 0 0 0 0 0
332 299 209 87 46 86 101 34 26 16 9 9 3 3 1 0 0 0 0 0 0 0 0 0 0 0 0 0 0 0 0 0
76 28 18 19 43 44 42 40 34 31 8 7 0 0 0 0 0 0 0 0 0 0 0 0 0 0 0 0 0 0 0 0
23 18 38 54 49 49 46 44 22 6 0 0 0 0 0 0 0 0 0 0 0 0 0 0 0 0 0 0 0 0 0 0
0 0 0 0 0 0 0 0 0 0 0 0 0 0 0 0 0 0 0 0 0 0 0 0 0 0 0 0 5 9 0 0
0 0 0 0 0 0 0 0 0 0 0 0 0 0 0 0 2 6 4 0 0 0 0 0 0 1 0 1 1 1 6 0
0 0 0 0 0 0 0 0 0 0 0 0 0 2 1 0 0 0 0 0 0 0 0 0 0 4 11 12 7 9 4 4
0 0 0 0 0 0 0 0 0 0 7 20 0 1 4 0 0 0 0 0 0 0 0 0 4 3 12 16 10 11 4 3
0 0 3 4 0 4 3 11 26 15 18 29 0 8 0 0 0 3 4 0 0 0 0 0 0 0 0 0 0 3 25 19

GFSFLT2_con_mucape_009.txt.gz
CAPE
1294 1262 1214 1120 944 763 653 705 800 843 806 699 528 359 203 141 27 0 0 0 0 0 0 0 0 0 0 0 0 0 0 0
1370 1218 1125 862 661 570 562 546 533 642 621 420 184 95 87 97 32 18 14 0 0 1 0 0 0 0 0 0 0 0 0 0
889 750 587 448 397 424 513 502 411 408 396 281 117 24 11 18 73 57 90 70 40 83 110 111 52 22 0 0 0 0 0 0
463 349 268 228 320 367 208 229 159 155 205 204 185 205 196 123 97 154 246 228 255 242 280 230 202 27 0 0 0 0 0 0
139 80 75 120 182 176 88 158 143 198 330 336 355 361 318 226 269 110 82 80 37 54 72 68 47 14 13 0 0 0 0 0
260 167 39 7 98 48 87 142 292 316 459 525 425 300 53 11 0 0 0 0 0 0 0 0 0 0 0 0 0 0 0 0
469 419 169 115 101 182 254 296 479 535 530 491 367 107 6 0 0 0 0 0 0 0 0 0 0 0 0 0 0 0 0 0
560 627 473 335 263 247 307 406 548 707 657 544 347 38 33 0 0 0 0 0 0 0 0 0 0 0 0 0 0 0 0 0
506 552 329 303 338 341 344 475 367 675 696 529 51 4 14 9 9 0 0 0 0 0 0 0 0 0 0 0 0 0 0 0
581 335 199 123 382 385 320 143 47 199 226 91 13 14 32 33 25 0 0 0 0 0 0 0 0 0 0 0 0 0 0 0
413 263 95 47 136 347 390 42 21 14 24 29 29 28 35 16 0 1 0 0 0 0 0 0 0 0 0 0 0 0 0 0
433 163 151 114 94 115 64 70 57 43 44 48 44 14 22 19 2 7 0 0 0 0 0 0 0 0 0 0 0 0 0 0
564 252 105 100 102 117 122 115 27 44 37 47 50 46 0 0 0 0 0 0 0 0 0 0 0 0 0 0 0 0 0 0
171 136 88 74 133 105 72 33 31 23 30 19 5 0 0 0 0 0 0 0 0 0 0 0 0 0 0 0 0 0 0 0
19 10 78 104 70 12 0 0 0 0 0 0 0 0 0 0 0 0 0 0 0 0 0 0 0 0 0 0 0 0 0 0
0 0 0 0 0 0 0 0 0 0 0 0 0 0 0 0 0 0 0 0 0 0 0 0 0 0 0 0 0 0 0 0
0 0 0 0 0 0 0 0 0 0 0 0 0 0 0 0 0 1 0 0 0 0 0 0 0 0 0 0 0 0 13 0
0 0 0 0 0 0 0 0 0 0 0 0 1 1 0 0 5 7 0 0 0 0 0 0 0 0 0 0 0 0 0 26
0 0 0 0 0 0 0 0 0 0 0 5 12 7 1 4 0 0 0 0 0 0 0 0 0 0 0 0 0 0 3 30
0 0 0 0 0 0 0 0 0 1 10 5 0 0 0 0 0 3 2 0 7 0 0 0 0 0 0 0 0 0 0 9

GFSFLT2_con_mucape_012.txt.gz
CAPE
928 944 946 985 967 881 788 781 816 793 716 629 499 285 127 34 23 10 0 0 17 18 47 33 2 6 14 8 0 0 0 0
1822 1437 961 938 790 632 496 533 598 636 615 455 170 98 13 8 0 11 78 23 32 107 93 126 103 77 33 25 0 0 0 0
1800 1459 1164 891 545 436 528 530 487 466 438 323 103 0 0 0 23 71 138 160 191 205 242 235 184 47 9 22 10 0 0 0
1269 1033 803 465 329 356 240 178 178 197 192 218 119 94 86 92 78 67 102 182 231 246 262 235 97 1 0 0 0 0 0 0
750 542 309 186 247 196 26 94 62 172 249 230 225 245 241 173 154 25 0 0 0 0 0 0 0 0 0 0 0 0 0 0
377 230 95 51 79 74 0 65 83 226 382 365 381 321 142 11 0 0 0 0 0 0 0 0 0 0 0 0 0 0 0 0
132 33 0 0 2 30 57 130 268 327 444 491 333 196 17 0 0 0 0 0 0 0 0 0 0 0 0 0 0 0 0 0
246 75 6 0 35 111 177 303 428 533 584 547 420 164 83 7 9 14 0 0 0 0 0 0 0 0 0 0 0 0 0 0
427 369 335 161 246 231 238 336 560 664 719 643 402 45 25 34 25 28 15 0 0 0 0 0 0 0 0 0 0 0 0 0
559 493 449 96 39 256 280 397 282 239 401 167 56 30 24 37 40 38 7 0 0 0 0 0 0 0 0 0 0 0 0 0
569 330 87 37 13 187 144 151 49 44 96 46 46 28 32 24 13 3 0 0 0 0 0 0 0 0 0 0 0 0 0 0
522 282 119 126 53 108 109 91 41 37 42 36 20 28 22 3 1 0 0 0 0 0 0 0 0 0 0 0 0 0 0 0
304 178 169 80 64 69 52 44 37 13 0 0 17 2 5 0 0 0 0 0 0 0 0 0 0 0 0 0 0 0 0 0
69 64 37 32 36 53 1 0 0 0 0 0 0 0 0 0 0 0 0 0 0 0 0 0 0 0 0 0 0 0 0 0
9 0 0 5 0 0 0 0 0 0 0 0 0 0 0 0 0 0 0 0 0 0 0 0 0 0 0 0 0 0 0 0
0 0 0 0 0 0 0 0 0 0 0 0 0 0 0 0 0 0 0 0 0 0 0 0 0 0 0 0 0 0 0 0
0 0 0 0 0 0 0 0 0 0 0 0 0 0 0 0 0 1 0 0 0 0 0 0 0 0 0 0 0 0 0 0
0 0 0 0 0 0 0 0 0 0 0 0 0 0 0 0 0 0 0 0 0 0 2 0 0 0 0 0 0 0 0 0
0 0 0 0 0 0 0 0 0 0 0 0 0 0 0 0 0 0 0 0 8 5 2 0 0 0 0 0 0 0 0 0
0 0 0 0 0 0 0 0 0 0 0 0 0 0 0 0 0 0 0 0 1 6 6 0 0 0 0 0 0 0 0 0

GFSFLT2_con_mucape_015.txt.gz
CAPE
1323 1438 1271 1136 1078 989 796 781 772 729 655 595 450 212 77 112 116 47 0 67 114 85 60 68 27 49 10 0 0 0 0 0
1212 1215 1132 1198 1209 858 726 646 601 597 533 393 166 50 8 32 0 82 161 170 143 173 211 223 173 79 41 11 0 0 0 0
1057 802 1014 1079 979 744 533 538 492 466 443 215 48 85 125 112 44 70 178 170 260 311 288 258 197 21 0 9 0 0 0 0
1392 1543 1520 945 657 617 523 369 336 337 383 478 256 255 272 228 159 51 39 69 71 19 38 35 6 34 0 0 0 0 0 0
1056 1152 913 692 547 517 297 259 234 313 463 467 450 461 484 407 395 104 52 0 0 0 7 2 0 0 0 0 0 0 0 0
828 781 531 391 324 340 145 186 263 374 501 509 577 580 318 132 15 3 0 0 0 0 0 0 0 0 0 0 0 0 0 0
641 374 239 177 165 174 154 281 385 474 599 660 511 335 102 26 2 0 0 1 0 0 0 0 0 0 0 0 0 0 0 0
311 229 70 39 94 158 216 268 261 316 355 386 341 250 69 13 4 4 14 18 2 0 0 0 0 0 0 0 0 0 0 0
332 113 34 53 109 101 133 282 303 344 309 242 298 122 33 45 35 27 27 22 0 0 0 0 0 0 0 0 0 0 0 0
364 349 287 126 34 8 10 190 92 163 120 77 39 33 30 20 16 4 2 0 8 3 0 0 0 0 0 0 0 0 0 0
500 391 269 108 44 21 44 136 84 64 42 17 18 17 5 6 0 2 5 0 0 0 0 0 0 0 0 0 0 0 0 0
523 322 287 124 79 55 48 58 16 13 19 23 23 2 0 0 1 0 0 0 0 0 0 0 0 0 0 0 0 0 0 0
450 261 142 102 67 35 8 23 22 30 9 0 0 0 0 0 0 0 0 0 0 0 0 0 0 0 0 0 0 0 0 0
231 102 35 14 7 9 4 0 0 0 0 0 0 0 0 0 0 0 0 0 0 0 0 0 0 0 0 0 0 0 0 0
0 0 0 0 0 0 0 0 0 0 0 0 0 0 0 0 0 0 0 0 0 0 0 0 0 0 0 0 0 0 0 0
0 0 0 0 0 0 0 0 0 0 0 0 0 0 0 0 0 0 0 0 0 0 0 0 0 0 0 0 0 0 0 0
0 0 0 0 0 0 0 0 0 0 0 0 0 0 0 0 0 0 0 0 0 0 0 0 0 4 1 0 0 0 0 0
0 0 0 0 0 0 0 0 0 0 0 0 0 0 0 0 0 0 0 0 0 8 4 1 0 0 0 0 0 0 0 0
0 0 0 0 0 0 0 0 0 0 0 0 0 0 0 0 0 0 0 0 6 5 1 0 0 0 0 0 0 0 0 0
0 0 0 0 0 0 0 0 0 0 0 0 0 0 0 0 0 0 0 9 9 0 0 0 0 0 0 0 0 17 44 60

GFSFLT2_con_mucape_018.txt.gz
CAPE
1129 889 954 1252 1146 886 738 812 772 739 683 592 359 181 210 129 50 0 0 12 15 46 62 111 124 58 1 0 0 0 0 0
1249 1340 1268 1232 1176 817 647 670 591 572 559 354 163 65 79 55 55 158 136 122 143 147 160 186 182 103 9 9 0 0 0 0
1248 1015 1076 1054 931 921 539 545 520 424 362 164 63 153 215 142 52 110 165 158 186 133 146 143 97 112 0 0 1 0 0 0
1154 1106 1140 1212 658 619 379 140 71 300 361 438 373 559 509 339 166 19 23 6 0 0 3 5 26 0 0 0 0 0 0 0
1526 1274 1289 832 544 341 74 128 352 652 771 775 852 847 838 427 182 102 114 0 16 1 0 0 0 0 0 0 0 0 0 0
1035 1159 1015 739 350 124 186 247 582 764 953 1113 1159 1027 795 378 108 137 135 57 6 0 0 0 0 0 0 0 0 0 0 0
934 801 729 583 371 347 451 704 773 1066 1084 1191 1161 949 782 281 262 109 22 8 13 4 0 0 0 0 0 0 0 0 0 0
864 585 486 364 533 663 814 852 760 834 983 913 394 420 654 434 166 14 24 40 31 12 0 0 0 0 0 0 0 0 0 0
810 693 522 643 359 73 16 15 185 264 270 219 135 39 51 21 22 26 34 35 11 0 0 0 0 0 0 0 0 0 0 0
975 715 678 113 19 1 35 1 33 88 60 62 42 28 18 20 22 2 0 0 0 0 0 0 0 0 0 0 0 0 0 0
1081 942 604 365 61 24 34 23 36 35 17 38 22 16 11 1 0 0 0 0 0 0 0 0 0 0 0 0 0 0 0 0
1181 745 524 199 70 45 43 20 16 13 0 0 0 0 0 0 0 0 0 0 0 0 0 0 0 1 0 0 0 0 0 2
1009 549 393 275 129 41 0 3 8 0 0 0 0 0 0 0 0 0 0 0 0 0 0 0 0 1 0 0 0 0 10 11
867 640 355 121 51 46 43 13 0 0 0 0 0 0 0 0 0 0 0 0 0 0 0 0 1 19 9 2 0 0 0 17
654 277 36 12 3 0 0 0 0 0 0 0 0 0 0 0 0 0 0 0 0 1 0 1 2 7 10 3 0 0 0 0
0 0 0 0 0 0 0 0 0 0 0 0 0 0 0 0 0 0 0 0 1 6 1 0 0 0 0 0 1 2 0 0
0 0 0 0 0 0 0 0 0 0 0 0 0 0 0 0 0 0 0 3 5 0 0 0 0 10 0 0 0 0 0 7
0 0 0 0 0 0 0 0 0 0 0 0 0 0 0 0 2 9 12 11 9 0 0 4 6 1 0 0 2 2 5 0
0 0 0 0 0 0 0 0 0 0 0 0 0 0 0 0 0 0 15 24 6 7 9 34 1 0 0 4 5 10 12 25
0 0 0 0 0 0 7 17 2 0 0 0 0 0 0 0 0 3 23 20 8 4 60 50 25 16 11 16 14 26 30 44

GFSFLT2_con_mucape_021.txt.gz
CAPE
812 620 585 737 877 715 707 742 740 706 621 435 155 136 117 64 43 38 34 48 70 98 122 152 169 97 19 18 13 40 0 0
1124 1076 918 1089 959 605 646 612 599 610 366 287 135 116 50 52 123 170 205 140 273 286 243 226 197 121 0 0 24 61 0 0
1113 913 910 930 928 751 582 627 566 468 190 124 16 99 171 83 86 113 130 118 106 29 77 138 181 204 30 0 0 0 0 0
847 1042 890 843 545 546 207 35 5 261 238 144 323 324 468 242 139 106 63 0 31 0 33 130 110 0 0 3 0 0 0 0
972 1148 1165 591 437 220 36 56 404 631 669 639 708 474 553 478 290 214 290 17 197 83 61 42 8 0 0 0 0 0 0 0
990 971 1023 529 238 89 92 329 574 539 703 864 894 1042 718 409 266 258 265 178 113 88 89 22 0 0 0 0 0 0 0 0
800 756 593 450 238 419 632 588 1085 1160 1047 1277 1242 987 1056 1003 960 582 300 151 109 75 44 1 0 0 0 0 0 0 0 0
565 461 376 279 602 833 931 747 694 875 1012 861 663 747 284 116 398 534 141 112 50 28 1 0 0 0 0 0 0 0 0 0
589 566 470 785 827 192 20 24 63 335 562 498 243 215 376 456 213 117 38 7 1 0 0 0 0 0 0 0 0 0 0 0
820 566 827 639 174 14 2 5 16 115 136 110 49 69 34 24 25 4 1 0 0 0 0 0 0 0 0 0 0 0 0 1
1221 983 905 451 237 28 7 15 26 5 5 0 1 0 0 1 0 0 0 0 0 0 0 0 1 1 0 0 1 0 1 0
1428 1219 752 622 230 95 110 109 89 10 1 0 0 0 0 0 0 0 0 0 0 0 0 0 0 3 0 0 1 0 0 0
1207 940 792 461 613 598 423 19 5 1 0 0 0 0 0 0 0 0 0 0 0 1 5 3 0 0 0 3 1 3 16 1
1198 940 810 787 670 345 102 144 14 0 0 0 0 0 0 0 0 0 0 0 0 0 0 0 0 1 1 0 0 0 0 0
953 851 769 437 256 66 27 0 0 0 0 0 0 0 0 0 0 0 0 0 0 0 2 6 1 1 2 4 0 0 0 2
838 501 212 45 2 0 0 12 40 0 0 0 0 0 0 0 0 0 0 0 0 2 1 8 5 8 16 12 26 32 0 0
100 5 0 0 0 0 0 0 0 0 0 0 0 0 0 0 0 0 2 3 4 12 21 20 20 38 32 34 13 0 1 10
0 0 0 0 0 0 0 0 0 0 0 3 6 0 0 0 0 0 0 2 12 23 35 26 43 46 20 24 25 19 19 25
0 0 0 0 0 0 0 0 0 1 0 8 0 0 0 0 0 0 0 0 12 21 24 29 69 43 29 40 32 40 44 38
0 0 0 0 0 0 0 0 4 0 0 0 0 0 0 0 0 0 1 9 20 33 22 73 62 54 50 53 57 58 60 58

GFSFLT2_con_mucape_024.txt.gz
CAPE
291 373 602 647 624 544 534 530 519 539 390 285 296 299 250 269 303 293 268 278 267 269 258 267 260 177 48 0 0 4 0 3
296 478 771 596 480 417 418 432 448 420 306 165 143 152 165 235 310 289 219 172 219 174 160 151 189 139 95 33 0 0 0 0
330 488 761 639 494 423 438 452 401 304 132 67 23 34 59 136 161 140 72 45 70 0 0 55 171 187 179 151 42 0 0 0
487 653 748 709 417 251 130 71 57 43 0 90 249 596 173 88 164 112 148 42 66 25 66 111 156 0 0 14 0 0 0 0
861 798 850 426 309 368 80 20 479 719 709 775 829 674 457 324 387 132 171 72 193 31 106 37 28 3 0 0 0 0 0 0
844 846 990 455 224 166 205 416 733 699 859 936 1075 868 570 644 590 422 236 76 135 119 84 77 0 0 0 0 0 0 0 0
840 874 680 483 502 678 835 872 1083 1111 1253 1224 1072 970 723 440 453 97 246 90 35 24 11 0 0 0 0 0 0 0 0 0
653 605 542 562 735 827 552 446 472 745 785 665 465 456 97 58 185 73 52 41 18 1 1 0 0 0 0 0 0 0 0 0
538 491 408 919 636 415 59 31 91 525 495 562 331 135 175 64 51 48 13 3 0 0 0 0 0 0 0 0 0 0 0 0
464 384 890 690 398 25 9 7 51 120 65 90 68 65 30 18 19 4 0 0 0 0 0 0 0 0 0 0 0 0 0 0
638 875 753 443 202 99 35 60 33 23 1 7 6 0 0 0 0 0 0 0 0 0 0 0 0 0 0 0 0 0 0 0
900 989 490 397 154 46 117 203 146 5 8 1 0 0 0 0 0 0 0 0 0 0 0 0 0 0 0 0 0 0 0 0
1187 742 498 485 229 190 267 178 14 3 0 0 0 0 0 0 0 0 0 0 0 0 0 0 0 0 0 0 0 0 0 0
931 772 615 498 458 398 187 5 1 0 0 0 0 0 0 0 0 0 0 0 0 0 0 0 0 0 0 0 0 0 0 0
968 776 712 735 547 165 26 9 0 0 0 0 0 0 0 0 0 0 0 0 0 0 0 0 0 0 0 0 0 0 0 0
964 764 738 311 138 9 1 0 0 0 0 0 0 0 0 0 0 0 0 0 0 0 0 0 0 0 0 0 0 0 0 0
906 491 195 96 0 0 0 0 0 0 0 0 0 0 0 0 0 0 0 0 0 0 0 0 0 0 3 0 0 0 0 0
171 79 8 0 0 0 0 0 0 0 0 0 0 0 0 0 0 0 0 0 0 0 6 7 5 3 11 4 0 0 0 0
6 0 0 0 0 0 0 0 0 0 0 10 4 0 0 0 0 0 0 0 0 2 0 0 5 2 5 0 0 0 0 6
0 0 0 0 0 0 0 0 0 0 9 22 15 0 0 0 0 0 0 0 0 4 0 4 3 8 0 0 0 2 0 7

GFSFLT2_con_mucape_027.txt.gz
CAPE
102 292 641 474 398 368 345 351 270 235 260 231 223 191 192 287 354 372 329 294 218 135 34 18 78 42 146 84 2 41 0 0
97 297 398 326 210 227 248 261 211 155 173 144 121 118 175 232 228 217 129 56 22 0 0 0 35 22 44 102 27 0 0 0
78 218 297 240 147 201 216 246 139 64 86 42 14 10 5 79 47 77 39 0 0 0 0 0 40 29 58 55 18 0 0 0
234 265 355 193 103 75 66 125 14 0 88 62 128 111 47 43 20 45 22 1 2 0 0 22 57 0 0 0 0 0 0 0
232 370 426 184 59 14 42 86 31 0 197 188 66 112 2 65 105 4 38 4 11 20 3 0 2 0 0 0 0 0 0 0
261 440 473 128 144 50 76 244 297 244 418 534 316 267 238 46 29 12 10 1 7 1 0 18 4 0 0 0 0 0 0 0
382 418 145 170 215 348 364 489 653 715 634 612 523 342 244 33 25 34 0 1 17 4 0 16 0 0 0 0 0 0 0 0
535 369 126 376 401 327 307 369 519 515 467 327 503 170 37 35 0 2 15 14 17 15 0 0 0 0 0 0 0 0 0 0
502 228 392 391 292 256 184 100 208 178 243 200 100 51 7 6 0 6 5 0 0 0 0 0 0 0 0 0 0 0 0 0
381 208 520 385 332 221 34 0 87 85 57 10 0 8 14 2 17 8 0 0 0 0 0 0 0 0 0 0 0 0 0 0
314 463 590 491 336 51 1 0 0 0 0 0 0 0 0 0 0 0 0 0 0 0 0 0 0 0 0 0 0 0 0 0
451 582 584 521 253 36 2 13 8 0 0 0 8 5 0 0 0 0 0 0 0 0 0 0 0 0 0 0 0 0 0 0
543 518 481 400 49 55 71 57 6 0 5 9 0 0 0 0 0 0 0 0 0 0 0 0 0 0 0 0 0 0 0 0
638 611 516 308 119 54 115 6 0 0 0 0 0 0 0 0 0 0 0 0 0 0 0 0 0 0 0 0 0 0 0 0
702 694 583 342 144 154 143 0 0 0 0 0 0 0 0 0 0 0 0 0 0 0 0 0 0 0 0 0 0 0 0 0
765 603 395 286 301 371 190 0 0 0 0 0 0 0 0 0 0 0 0 0 0 0 0 0 0 0 0 0 0 0 0 0
722 387 384 508 566 132 2 5 0 0 0 0 0 0 2 2 0 0 0 0 0 0 0 0 0 0 0 0 0 0 0 0
641 465 194 90 8 0 0 0 0 0 0 0 7 7 12 8 2 0 0 0 0 0 0 0 0 0 3 8 0 0 0 0
676 382 164 137 78 4 0 0 0 0 0 0 2 8 12 1 0 0 0 0 0 0 0 0 0 0 0 0 0 0 0 0
338 232 139 101 2 0 0 0 0 0 0 1 3 14 5 0 0 0 0 0 0 0 0 0 0 0 2 5 2 2 6 2

GFSFLT2_con_mucape_030.txt.gz
CAPE
126 139 300 377 345 331 266 187 183 225 248 242 253 237 270 315 337 314 248 167 27 2 2 8 7 42 88 37 0 0 0 0
9 171 202 265 256 263 237 159 163 178 181 162 144 160 225 229 179 194 129 15 0 0 0 0 42 37 26 5 0 0 0 0
20 80 216 193 164 203 189 140 121 118 150 135 37 0 2 31 0 33 9 0 0 0 0 1 0 18 12 0 0 0 0 0
28 123 150 122 110 91 62 47 17 10 8 8 9 15 2 8 0 0 0 0 0 0 3 0 0 0 0 0 0 0 0 0
35 110 126 87 61 31 26 9 21 51 41 95 35 7 19 0 7 2 0 0 3 0 0 0 0 0 0 0 0 0 0 0
108 165 152 47 5 3 0 0 5 155 156 92 134 62 74 102 34 0 0 0 0 0 0 0 0 0 0 0 0 0 0 0
169 194 203 44 23 64 94 191 314 455 430 329 207 245 75 22 0 0 0 0 0 0 0 0 0 0 0 0 0 0 0 0
292 337 183 62 107 196 312 447 539 508 487 439 368 271 214 33 0 0 0 0 0 2 0 0 0 0 0 0 0 0 0 0
448 477 192 238 221 351 471 544 515 481 400 268 413 112 0 0 0 0 0 0 0 0 0 0 0 0 0 0 0 0 0 0
241 323 232 301 291 361 412 358 267 75 65 56 46 30 50 16 17 0 0 0 0 0 0 0 0 0 0 0 0 0 0 0
200 389 280 275 259 252 183 45 0 1 0 0 0 1 0 0 0 0 0 0 0 0 0 0 0 0 0 0 0 0 0 0
327 382 338 270 220 164 77 0 0 3 4 0 0 0 0 0 0 0 0 0 0 0 0 0 0 0 0 0 0 0 0 0
346 334 434 339 276 145 31 31 50 41 3 0 0 0 0 0 0 0 0 0 0 0 0 0 0 0 0 0 0 0 0 0
303 254 501 514 381 143 77 78 137 74 0 0 0 0 0 0 0 0 0 0 0 0 0 0 0 0 0 0 0 0 0 0
478 392 549 602 537 271 111 90 37 23 0 0 0 0 0 0 0 0 0 0 0 0 0 0 0 0 0 0 0 0 0 0
722 567 541 543 409 215 136 112 2 0 0 0 0 0 0 0 0 2 0 0 0 0 0 0 0 0 0 0 0 0 0 0
677 710 738 650 266 139 157 13 0 0 0 0 0 0 0 1 2 0 3 0 0 0 0 0 0 0 0 0 0 0 0 0
842 799 721 443 313 170 291 126 14 14 20 16 0 0 1 9 1 8 0 0 0 0 0 0 0 0 0 0 0 0 0 0
686 558 374 372 454 526 568 391 124 71 73 26 16 6 19 3 5 4 0 0 0 0 0 0 0 0 0 0 0 0 0 1
530 392 501 83 338 100 26 62 71 37 12 21 29 15 0 1 1 0 0 0 0 0 0 0 0 0 0 0 6 5 7 11

GFSFLT2_con_mucape_033.txt.gz
CAPE
136 68 216 274 259 252 248 298 367 384 370 341 316 306 297 303 307 284 245 176 113 55 17 52 93 29 0 0 0 0 0 0
39 12 171 147 118 214 240 287 328 347 326 277 215 222 263 226 218 203 112 66 41 19 12 62 128 13 0 0 0 0 0 0
45 110 117 148 153 151 142 215 244 237 209 146 51 5 0 5 22 50 5 0 0 3 29 5 0 21 0 0 0 0 0 0
13 46 138 145 130 125 38 39 29 17 3 2 0 0 2 0 14 3 0 0 0 0 0 0 0 0 0 0 0 0 0 0
0 17 151 146 111 75 29 11 6 1 0 10 4 19 13 0 0 0 0 0 0 0 0 0 0 0 0 0 0 0 0 0
38 78 215 101 68 28 11 0 0 2 20 45 41 28 21 30 1 11 0 0 0 0 0 0 0 0 0 0 0 0 0 0
69 170 293 130 34 11 0 7 58 119 115 141 126 34 59 81 35 0 0 0 0 0 0 0 0 0 0 0 0 0 0 0
164 195 320 117 1 0 28 136 217 405 318 201 235 222 76 46 0 5 0 0 0 0 0 0 0 0 0 0 0 0 0 0
193 238 306 132 4 20 152 271 420 492 429 292 197 238 245 50 4 1 0 0 0 0 0 0 0 0 0 0 0 0 0 0
379 360 356 69 22 75 256 453 507 461 428 398 409 301 38 0 0 0 0 0 0 0 0 0 0 0 0 0 0 0 0 0
483 407 393 134 163 343 475 556 524 431 180 7 55 13 0 0 0 0 0 0 0 0 0 0 0 0 0 0 0 0 0 0
576 517 477 235 276 333 459 473 359 146 1 0 6 0 0 0 0 0 0 0 0 0 0 0 0 0 0 0 0 0 0 0
534 334 318 267 310 327 378 275 123 12 7 0 0 0 0 0 0 0 0 0 0 0 0 0 0 0 0 0 0 0 0 0
548 317 291 320 334 306 212 123 36 18 30 37 0 0 0 0 0 0 0 0 0 0 0 0 0 0 0 0 0 0 0 0
584 369 379 326 281 231 197 73 46 62 62 65 0 0 0 0 0 0 0 0 0 0 0 0 0 0 0 0 0 0 0 0
496 517 399 414 389 373 268 96 44 105 63 53 1 0 0 0 0 0 0 0 0 0 0 0 0 0 0 0 0 0 0 0
368 411 285 345 501 542 382 225 73 101 51 7 0 0 0 0 0 0 0 0 11 8 0 0 0 0 0 0 0 0 0 0
271 340 382 275 495 524 414 151 138 86 18 3 9 13 13 1 0 0 7 7 12 0 1 0 0 0 0 0 0 0 0 0
457 516 473 405 584 610 409 177 79 83 22 49 58 45 37 4 3 18 15 6 9 0 0 0 0 0 0 0 0 0 2 0
433 620 697 683 750 542 317 85 217 128 94 80 57 39 19 14 12 4 0 9 8 0 0 0 0 0 0 0 0 4 11 10

GFSFLT2_con_mucape_036.txt.gz
CAPE
160 15 38 292 322 328 364 401 455 472 472 456 439 353 343 328 296 312 292 217 170 236 229 68 32 51 0 0 0 0 0 0
46 57 30 169 270 280 311 374 392 402 392 293 218 225 237 233 220 282 207 141 142 175 179 95 11 6 9 0 0 0 0 0
33 3 66 143 162 231 292 361 316 281 225 174 50 37 14 0 36 55 33 24 66 149 0 0 0 0 0 0 0 0 0 0
20 52 144 145 154 76 41 102 56 33 30 15 0 0 0 0 0 0 1 13 51 0 0 0 0 0 0 0 0 0 0 0
0 20 127 110 98 7 2 5 2 0 0 0 0 0 0 0 0 0 0 0 0 0 0 0 0 0 0 0 0 0 0 0
5 26 70 118 95 31 8 5 0 0 0 0 0 1 0 0 0 0 10 0 0 0 0 0 0 0 0 0 0 0 0 0
0 8 167 155 79 22 0 0 0 0 0 31 35 26 9 17 22 27 11 0 0 0 0 0 0 0 0 0 0 0 0 0
71 131 212 206 22 0 0 0 0 10 44 128 74 28 35 75 81 32 15 0 0 0 0 0 0 0 0 0 0 0 0 0
22 105 254 276 16 0 0 0 97 221 176 121 179 174 90 93 52 37 28 0 4 1 0 0 0 0 0 0 0 0 0 0
135 205 275 360 37 0 0 25 244 405 330 231 179 143 173 211 56 5 0 3 5 0 0 0 0 0 0 0 0 0 0 0
224 289 282 332 134 0 0 146 329 406 327 260 305 284 212 121 0 4 22 3 0 0 0 0 0 0 0 0 0 0 0 0
280 322 331 339 78 9 100 323 394 398 342 235 66 39 45 45 33 35 1 0 0 0 0 0 0 0 0 0 0 0 0 0
390 379 361 389 73 145 279 414 449 431 269 48 0 17 15 18 0 0 0 0 0 0 0 0 0 0 0 0 0 0 0 0
485 474 460 458 192 177 269 361 332 204 55 16 25 40 0 0 0 0 0 0 0 0 0 0 0 0 0 0 0 0 0 0
584 630 561 536 463 192 200 222 236 163 47 34 33 33 1 0 0 0 0 0 0 0 0 0 0 0 0 0 0 0 0 0
598 757 659 319 239 225 241 239 172 58 20 17 19 36 6 0 0 0 0 0 0 0 0 0 0 0 0 0 0 0 0 0
568 794 817 367 251 321 296 227 149 149 36 32 20 48 7 0 0 0 0 0 0 0 1 2 0 0 0 0 0 0 0 0
556 711 661 614 343 330 290 272 266 165 100 61 60 51 4 0 2 8 9 6 0 0 3 0 1 0 0 0 0 0 0 0
692 572 462 496 409 370 380 337 293 166 61 74 79 50 26 49 53 57 50 3 15 5 4 3 0 0 0 0 0 0 0 0
690 660 192 122 323 353 176 331 342 163 90 81 74 50 63 82 72 58 4 14 12 10 8 9 0 0 0 0 0 0 0 0

GFSFLT2_con_mucape_039.txt.gz
CAPE
274 184 71 242 266 291 306 375 419 436 480 466 435 305 303 283 281 251 289 313 281 122 114 185 137 50 0 0 0 0 0 0
144 184 4 103 292 271 309 337 374 394 391 298 210 232 258 290 222 203 215 255 342 177 54 79 56 0 0 0 0 0 0 0
147 49 2 138 253 356 340 368 372 300 231 186 82 59 79 35 82 78 92 164 97 114 10 0 0 0 0 0 0 0 0 0
13 22 130 142 154 224 223 249 177 103 38 85 59 105 41 15 9 25 54 38 2 0 0 0 0 0 0 0 0 0 0 0
1 21 132 202 124 101 112 86 56 64 67 45 69 73 66 15 15 16 18 0 0 0 0 0 0 0 0 0 0 0 0 0
18 3 2 45 96 43 22 18 20 36 16 58 105 89 32 16 21 0 0 0 0 0 0 0 0 0 0 0 0 0 0 0
4 0 7 168 164 20 9 16 14 32 9 67 63 88 15 25 3 31 26 8 2 0 0 0 0 0 0 0 0 0 0 0
34 30 104 304 95 28 2 2 0 0 11 98 78 104 16 7 34 47 35 25 14 0 0 0 0 0 0 0 0 0 0 0
0 20 219 314 72 18 0 2 9 54 138 97 116 13 27 92 90 64 35 28 6 2 0 0 0 0 0 0 0 0 0 0
70 164 201 323 80 1 9 40 173 237 182 108 120 127 91 62 58 55 12 1 1 20 0 0 0 0 0 0 0 0 0 0
46 108 246 347 213 21 35 91 239 311 368 201 169 78 65 76 97 44 1 6 20 0 0 0 0 0 0 0 0 0 0 0
161 259 349 325 331 8 57 160 226 342 398 247 115 107 176 139 64 28 4 18 0 0 0 0 0 0 0 0 0 0 0 0
281 332 313 300 295 44 77 233 179 308 334 272 130 90 24 4 10 14 11 0 0 0 0 0 0 0 0 0 0 0 0 0
440 393 296 322 303 75 83 103 174 389 297 183 99 1 0 5 7 7 1 0 0 0 0 0 0 0 0 0 0 0 0 0
396 416 322 328 348 173 69 124 215 307 222 110 27 3 1 2 2 0 0 0 0 0 0 0 0 0 0 0 0 0 0 0
345 374 476 439 440 433 190 121 217 215 152 91 28 8 8 3 10 0 0 0 0 0 0 0 0 0 0 2 0 0 0 0
462 413 425 585 624 607 552 343 201 146 100 83 42 28 41 33 31 0 0 0 0 1 1 3 0 0 0 0 0 0 0 0
566 493 364 595 623 429 433 311 201 165 173 118 76 65 48 57 31 3 8 21 18 19 16 2 1 0 0 0 0 0 0 0
585 507 437 539 533 438 371 288 256 238 253 233 142 78 55 57 42 31 30 30 36 9 10 6 0 0 0 0 0 0 0 0
706 714 580 542 308 404 459 408 336 260 277 263 181 61 48 37 40 40 47 64 59 3 3 2 0 0 0 0 0 0 0 0

GFSFLT2_con_mucape_042.txt.gz
CAPE
294 255 154 161 275 291 279 344 398 458 471 450 406 348 306 338 360 364 325 220 266 271 252 162 52 0 0 0 0 0 0 0
268 206 49 0 318 302 340 340 355 396 385 271 261 250 243 262 275 361 401 288 235 287 256 88 0 0 0 0 0 0 0 1
209 117 17 2 192 392 390 439 352 283 256 187 64 39 20 26 98 241 316 325 213 147 84 0 0 0 0 0 0 0 0 0
203 129 33 36 288 310 352 262 180 156 122 55 35 77 37 13 20 168 116 84 20 0 0 0 0 0 0 0 0 0 0 0
110 12 5 63 142 352 329 279 281 136 143 75 152 105 71 60 21 43 18 3 0 0 0 0 0 0 0 0 0 0 0 0
6 5 19 1 96 173 189 121 99 84 90 112 151 120 92 94 138 210 88 21 2 0 0 0 0 0 0 0 0 0 0 0
14 4 3 1 25 122 153 185 100 44 94 108 89 49 93 153 136 93 34 10 10 0 0 0 0 0 0 0 0 0 0 0
6 2 1 101 116 141 175 173 72 110 76 179 238 102 172 314 177 50 29 20 10 3 0 0 0 0 0 0 0 0 0 0
0 44 109 153 274 157 39 56 18 8 68 485 497 443 361 223 96 30 24 5 3 0 0 0 0 0 0 0 0 0 0 0
92 33 157 337 355 166 0 24 18 29 354 537 577 484 334 164 44 32 31 22 0 0 0 0 0 0 0 0 0 0 0 0
124 106 145 555 619 189 87 48 107 178 565 567 477 225 90 59 33 37 39 0 0 0 0 0 0 0 0 0 0 0 0 0
60 132 469 583 616 325 57 9 92 516 831 697 468 202 52 37 29 43 11 0 0 0 0 0 0 0 0 0 0 0 0 0
280 400 509 602 743 466 117 57 203 677 745 834 411 325 79 54 48 4 0 0 0 0 0 0 0 0 0 0 0 0 0 0
492 398 498 754 814 694 174 310 196 416 629 731 573 394 54 5 0 0 0 0 10 0 0 0 0 0 0 0 0 0 0 0
521 573 806 810 768 672 283 473 634 704 588 342 327 134 109 6 6 4 3 0 0 0 0 0 0 0 0 1 0 0 0 0
498 656 937 909 912 768 476 342 358 507 480 139 59 100 44 20 27 22 24 0 0 0 0 0 11 14 6 0 0 0 0 0
611 667 1100 986 945 916 853 718 625 685 370 32 61 67 68 42 52 47 43 37 1 0 0 10 5 11 4 0 0 0 0 0
781 781 893 1096 1095 1025 1110 1200 1111 481 128 96 107 91 61 83 89 56 43 12 5 2 1 19 11 6 0 0 0 0 0 0
1202 996 763 901 868 431 700 834 977 267 131 89 150 147 133 70 99 79 48 17 18 31 48 36 2 4 1 0 0 0 0 0
1520 1234 994 925 626 189 319 359 294 166 286 124 211 286 239 237 300 107 102 47 46 49 49 13 6 2 0 0 0 0 0 0

GFSFLT2_con_mucape_045.txt.gz
CAPE
319 267 547 282 215 235 239 425 546 581 612 664 584 443 400 370 305 356 437 321 281 251 211 143 0 2 0 0 0 15 6 8
276 5 190 343 218 224 294 385 451 490 409 312 281 286 338 355 292 278 312 321 333 237 159 47 0 0 0 0 0 0 0 8
80 0 58 103 208 371 441 480 379 351 337 257 137 87 62 51 219 353 301 304 302 162 22 0 0 0 0 0 0 0 0 0
194 0 22 29 1 157 282 366 292 246 193 190 130 164 136 90 169 254 215 147 144 59 0 0 0 0 0 0 0 0 0 0
197 139 50 5 2 134 302 335 320 239 242 246 309 283 220 95 85 18 2 0 0 0 0 0 0 0 0 0 0 0 0 0
127 104 25 0 3 80 244 255 265 243 287 455 388 259 421 280 116 145 67 31 2 0 0 0 0 0 0 0 0 0 0 0
97 37 22 5 22 109 155 205 152 171 271 297 383 354 481 290 278 298 204 127 57 2 0 0 0 0 0 0 0 0 0 0
15 11 4 1 3 76 207 279 160 402 326 407 506 272 398 230 301 262 173 101 35 1 0 0 0 0 0 0 0 0 0 0
5 4 4 12 3 4 81 335 276 329 311 591 344 452 605 453 398 249 147 73 30 5 1 0 0 0 0 0 0 0 0 0
0 0 1 119 153 137 140 279 255 133 135 335 614 338 415 512 401 301 145 61 32 3 1 0 0 0 0 0 0 0 0 0
2 44 71 148 176 251 163 200 105 30 179 249 620 707 694 546 439 305 151 51 25 10 0 0 0 0 0 0 0 0 0 0
0 86 145 390 547 236 100 8 115 54 107 352 608 685 542 517 411 266 121 41 18 0 0 0 0 0 0 0 0 0 0 0
155 145 146 426 485 214 50 2 4 59 256 401 620 692 502 459 394 268 138 52 4 0 0 0 0 0 0 0 0 0 0 0
167 120 167 539 592 505 119 28 0 62 254 658 740 762 617 440 478 221 104 10 1 0 0 0 0 0 0 0 0 1 0 0
263 307 476 529 506 561 387 61 72 51 292 503 791 760 705 478 405 144 32 10 6 1 0 0 0 0 0 2 1 5 0 0
605 574 574 552 612 791 466 121 244 478 682 626 640 837 622 360 148 46 5 16 17 18 0 0 0 0 4 0 3 0 0 0
746 662 635 753 880 746 1042 485 398 545 718 771 825 587 399 156 38 25 36 37 32 24 1 0 2 0 7 0 0 0 0 0
1318 719 659 774 978 940 1061 1044 892 1059 1063 734 498 371 190 62 58 61 35 33 39 24 0 0 9 8 0 0 0 2 0 0
1115 756 597 920 1331 1126 1254 1337 1316 617 700 649 346 249 38 34 72 110 131 179 91 25 7 36 34 27 27 3 0 0 0 0
1083 943 994 857 1191 1007 1134 1346 1196 759 372 176 115 91 70 62 169 249 268 105 84 48 19 24 47 50 23 1 0 0 0 0

GFSFLT2_con_mucape_048.txt.gz
CAPE
611 406 425 318 414 371 461 630 667 681 640 618 513 345 366 600 777 710 442 320 275 227 183 99 35 0 0 0 0 17 12 0
293 171 78 53 197 407 470 500 536 557 406 274 231 262 299 344 398 359 337 297 255 214 167 73 0 0 0 0 0 0 0 0
314 110 59 0 95 443 522 542 416 327 274 221 101 35 20 102 260 346 358 295 207 135 29 0 0 0 0 0 0 0 0 0
239 162 110 40 3 199 340 375 284 262 169 134 44 45 115 114 197 231 258 228 137 14 0 0 0 0 0 0 0 0 0 0
272 140 32 7 0 13 108 196 237 277 243 240 251 156 140 153 106 5 7 11 0 0 0 0 0 0 0 0 0 0 0 0
153 85 19 3 1 0 98 194 240 214 227 328 333 218 210 154 75 74 0 0 0 0 0 0 0 0 0 0 0 0 0 0
118 111 10 7 2 6 75 217 205 160 166 339 316 285 282 178 169 115 40 21 0 23 0 0 0 0 0 0 0 0 0 0
22 59 38 7 3 24 28 112 180 97 115 363 310 355 289 356 460 416 325 150 106 6 0 0 0 0 0 0 0 0 0 0
1 12 5 0 2 23 49 143 252 328 300 330 381 475 364 552 369 434 178 156 112 41 0 0 0 0 0 0 0 0 0 0
3 0 3 1 12 13 63 93 243 268 225 347 396 478 393 408 520 366 262 108 51 5 0 0 0 0 0 0 0 0 0 0
0 1 2 3 26 1 0 18 146 159 147 240 425 436 518 559 500 418 205 80 38 11 0 3 0 0 0 0 0 0 0 0
0 0 0 0 62 0 7 28 88 71 61 110 397 531 572 522 417 258 87 100 39 8 1 0 0 0 0 0 0 0 0 0
0 0 0 15 35 9 33 5 37 60 43 75 465 462 551 507 374 271 108 104 25 19 0 0 0 0 0 0 0 0 0 0
0 0 0 22 30 48 81 2 0 16 60 197 615 457 459 394 375 232 95 124 46 0 0 0 0 0 0 0 0 0 0 0
0 0 0 5 162 282 246 31 2 0 34 537 695 675 547 457 354 398 154 120 11 5 4 1 1 0 0 0 0 0 0 0
145 85 49 9 363 344 397 104 31 0 6 384 567 613 547 534 496 416 178 63 23 14 14 23 11 0 0 0 1 0 0 0
256 175 186 285 349 470 320 490 34 135 118 372 452 559 600 567 409 472 132 39 31 23 36 31 23 1 3 1 2 11 1 0
428 403 348 476 408 290 593 479 399 429 633 490 575 477 533 463 717 227 69 43 61 40 46 62 48 3 1 15 20 5 11 2
696 736 573 596 789 558 634 685 778 662 726 443 350 167 200 181 143 55 29 56 95 95 96 80 56 20 0 19 23 17 11 3
839 837 682 673 745 1071 706 621 854 874 632 515 292 122 23 126 87 35 40 96 130 77 92 43 25 3 0 17 39 7 3 3

GFSFLT2_con_mucape_051.txt.gz
CAPE
516 553 396 249 165 358 578 547 603 672 638 702 793 961 1072 1121 822 530 368 251 165 101 34 0 0 0 0 0 0 0 0 0
394 350 257 205 46 224 408 439 437 377 316 272 594 702 775 680 512 351 277 198 153 85 22 0 0 0 0 0 0 0 0 0
518 330 239 81 72 331 440 380 258 212 164 112 169 330 357 207 269 314 255 172 133 73 0 0 0 0 0 0 0 0 0 0
362 281 123 24 72 193 237 161 82 50 17 1 16 55 117 222 284 270 209 126 75 14 0 0 0 0 0 0 0 0 0 0
181 170 59 31 41 93 73 56 73 25 3 13 67 82 116 142 179 130 101 11 0 0 0 0 0 0 0 0 0 0 0 0
176 72 69 48 9 1 0 16 48 22 90 100 129 80 79 74 40 53 16 0 0 0 0 0 0 0 0 0 0 0 0 0
201 54 62 30 10 0 0 21 55 70 127 152 131 116 76 65 65 9 0 0 0 0 0 0 0 0 0 0 0 0 0 0
27 21 20 10 4 4 5 4 52 71 99 164 238 155 151 107 128 136 58 28 28 0 0 0 0 0 0 0 0 0 0 0
60 10 20 35 22 8 3 3 35 48 54 147 249 249 185 245 241 192 179 83 56 0 0 0 0 0 0 0 0 0 0 0
32 49 13 5 4 3 0 0 81 115 166 182 147 266 332 264 192 238 108 84 41 19 0 0 0 0 0 0 0 0 0 0
14 8 4 2 7 1 3 1 56 126 111 103 134 163 214 156 312 244 143 92 37 3 0 0 0 0 0 0 0 0 0 0
0 0 2 4 3 0 2 10 30 34 14 27 178 107 128 341 326 265 192 97 22 0 0 0 0 0 0 0 0 0 0 0
0 0 0 0 1 0 0 0 6 3 11 25 53 162 229 350 330 255 230 97 52 19 1 0 0 0 0 0 0 0 0 0
0 0 0 0 0 0 0 0 9 32 6 38 15 171 248 355 360 362 216 125 55 33 35 5 0 0 0 3 0 0 0 0
0 0 0 0 0 0 0 13 45 0 7 0 21 317 302 331 438 333 236 167 56 53 44 25 7 1 0 0 0 0 0 0
0 0 0 0 0 0 0 0 33 1 0 1 256 319 285 360 385 284 260 237 79 84 28 23 18 28 15 2 0 0 0 0
0 0 0 0 0 0 0 8 31 0 0 0 284 383 371 303 312 278 274 238 163 73 45 68 56 32 29 29 3 1 0 0
0 0 0 0 0 0 37 129 146 53 0 0 217 262 296 258 179 217 251 240 198 48 47 65 125 83 40 20 3 0 0 10
7 0 0 0 0 0 60 190 168 149 40 31 110 218 277 118 68 139 181 138 79 87 47 43 80 17 28 26 0 0 6 10
126 96 93 78 135 146 183 291 291 249 45 293 225 154 270 96 143 152 163 149 103 50 46 64 55 98 29 23 0 0 7 26

GFSFLT2_con_mucape_054.txt.gz
CAPE
416 393 439 244 107 70 180 803 1027 1141 1149 1143 1057 1052 808 640 483 359 242 104 31 0 0 0 7 0 0 0 0 0 0 0
388 304 253 68 5 8 101 639 759 850 1037 1032 948 905 668 457 300 234 141 81 25 0 0 0 0 0 0 0 0 0 0 0
233 79 154 79 0 6 131 487 407 561 767 809 717 497 269 66 107 148 151 83 12 0 0 0 0 0 0 0 0 0 0 0
240 212 108 32 8 49 195 257 264 433 541 499 386 310 96 74 107 119 119 101 35 0 0 0 0 0 0 0 0 0 0 0
313 179 146 62 0 0 166 57 82 122 310 341 275 131 32 39 36 33 41 35 0 0 0 0 0 0 0 0 0 0 0 0
301 236 165 73 25 107 23 6 0 0 27 76 102 34 0 10 22 14 0 11 1 0 0 0 0 0 0 0 0 0 0 0
209 214 165 131 113 18 6 0 0 3 26 16 5 1 0 4 3 2 6 3 0 0 0 0 0 0 0 0 0 0 0 0
195 110 71 110 22 10 2 0 0 48 33 11 12 0 0 0 0 0 0 0 0 0 0 0 0 0 0 0 0 0 0 0
99 40 49 61 11 2 6 1 36 64 57 68 36 13 20 0 14 31 47 35 21 21 0 0 0 0 0 0 0 0 0 0
106 10 53 36 44 18 3 16 74 83 71 97 96 96 80 83 74 78 56 80 69 56 4 0 0 0 0 0 0 0 0 0
33 16 23 22 14 6 5 24 21 45 1 57 109 113 197 202 202 155 197 120 83 59 5 0 0 0 0 0 0 0 0 0
1 21 21 22 29 11 4 3 2 2 9 64 79 65 102 188 143 188 96 82 87 34 9 0 0 0 0 0 0 0 0 0
4 0 3 0 1 3 4 3 10 0 24 24 6 32 55 106 186 212 131 77 77 56 16 0 0 0 0 0 0 0 0 0
1 1 3 4 13 1 0 8 2 0 0 0 0 0 36 61 95 211 150 117 88 55 29 17 1 2 1 1 0 0 0 0
0 0 0 0 0 0 0 1 0 0 0 0 0 0 0 48 144 215 214 125 175 70 61 20 37 21 21 34 23 3 3 0
0 0 0 0 0 0 0 0 0 0 0 0 0 0 0 49 112 197 159 181 201 148 63 38 35 36 38 37 26 22 23 0
0 0 0 0 0 0 0 0 0 0 0 0 0 0 32 45 119 179 147 105 117 154 67 52 49 55 40 21 34 28 16 11
0 0 0 0 0 0 0 0 0 0 2 23 16 2 48 86 145 176 128 88 102 134 63 68 53 57 67 44 9 0 9 7
0 0 0 0 0 0 0 0 0 2 19 34 2 3 97 172 117 126 76 1 65 79 107 128 70 43 60 41 5 20 13 6
0 0 0 0 0 0 0 1 37 30 51 74 67 0 37 114 152 141 51 22 124 92 74 99 68 67 57 46 13 17 3 15

GFSFLT2_con_mucape_057.txt.gz
CAPE
461 463 259 141 85 2 32 302 796 846 875 840 743 601 407 336 232 87 0 0 0 0 0 0 1 0 0 0 0 0 0 0
467 264 243 153 4 13 8 317 671 560 677 951 566 509 357 236 61 0 0 0 0 0 0 11 0 0 0 0 0 0 0 0
202 115 118 52 56 0 45 322 669 730 823 843 360 163 21 0 0 0 0 0 0 0 0 5 5 0 0 0 0 0 0 0
151 153 143 106 47 1 35 224 350 559 649 547 231 54 0 0 0 0 5 5 8 1 0 0 0 0 0 0 0 0 0 0
100 68 58 16 3 7 49 202 192 300 416 358 174 24 5 0 0 0 0 1 0 0 0 0 0 0 0 0 0 0 0 0
131 99 34 0 0 0 2 134 95 199 256 259 138 1 0 6 4 0 0 0 0 0 0 0 0 0 0 0 0 0 0 0
117 99 75 9 7 7 23 3 1 135 206 215 87 1 0 12 3 0 0 4 0 0 0 0 0 0 0 0 0 0 0 0
52 106 85 69 54 4 4 14 69 156 165 155 20 0 13 10 2 2 6 9 14 4 0 0 0 0 0 0 0 0 0 0
32 75 38 64 46 5 5 47 100 119 117 83 9 0 2 1 5 19 18 20 6 0 0 0 0 0 0 0 0 0 0 0
81 53 26 46 34 28 7 8 27 33 26 34 15 1 1 2 11 6 18 48 16 35 19 0 0 0 0 0 0 0 0 0
60 31 33 4 19 15 8 39 67 76 89 71 51 23 22 35 44 88 65 73 64 78 41 16 0 0 0 0 0 0 0 0
9 24 11 15 17 4 16 99 83 72 82 113 119 136 204 162 162 177 140 67 41 97 63 37 0 0 0 0 0 0 0 0
0 8 6 6 35 30 2 74 82 41 63 72 114 142 140 186 177 159 195 164 153 112 89 51 12 5 0 0 0 0 0 0
2 0 4 4 23 11 5 5 20 6 27 15 50 64 71 78 119 180 160 103 91 83 69 56 30 26 13 12 1 0 0 1
0 2 1 5 3 2 4 1 8 14 9 0 14 4 5 0 37 29 134 146 93 76 59 48 58 58 31 33 25 4 0 1
0 0 0 0 0 6 0 1 0 5 6 3 9 3 0 0 1 25 81 151 151 125 101 89 70 57 39 29 32 19 17 0
0 0 0 0 0 0 0 0 0 0 0 0 0 0 0 0 7 41 53 121 146 148 103 103 86 61 40 40 50 36 59 9
0 0 0 0 0 0 0 0 0 0 0 0 0 0 0 0 9 29 20 49 151 113 93 89 54 55 58 81 62 54 11 21
0 0 0 0 0 0 0 0 0 0 0 0 0 0 7 23 15 53 57 57 106 58 42 96 73 70 61 56 48 43 18 25
0 0 0 0 0 0 0 0 0 0 0 0 0 0 4 28 12 33 66 155 138 51 1 87 76 85 83 58 26 25 4 24

GFSFLT2_con_mucape_060.txt.gz
CAPE
1044 706 638 401 215 60 67 153 522 680 585 648 546 414 343 362 217 28 7 96 258 76 0 0 0 0 0 0 0 0 0 0
827 306 287 128 61 29 64 18 396 623 684 580 438 364 256 112 0 0 0 0 49 42 0 0 0 0 0 0 0 0 0 0
384 250 230 94 31 24 4 5 137 409 560 408 293 151 53 0 0 0 0 0 2 12 33 1 0 0 0 0 0 0 0 0
229 119 43 17 50 6 0 0 7 111 425 316 174 70 0 0 0 0 0 0 4 27 43 12 0 0 0 0 0 0 0 0
70 51 40 41 48 21 4 0 49 101 376 277 131 30 2 0 0 0 0 0 0 0 0 0 0 0 0 0 0 0 0 0
37 78 72 39 39 30 46 3 28 82 213 233 77 0 0 0 0 0 0 0 0 0 0 0 0 0 0 0 0 0 0 0
54 59 36 3 1 0 1 5 10 60 152 215 80 13 0 0 0 0 0 0 0 0 0 0 0 0 0 0 0 0 0 0
81 94 52 3 6 3 0 0 9 58 120 165 66 0 0 0 0 9 5 0 0 0 0 0 0 0 0 0 0 0 0 0
50 78 56 44 37 4 45 2 15 65 105 149 46 0 1 12 4 18 9 5 3 12 6 12 0 0 0 0 0 0 0 0
82 41 31 20 26 20 42 37 18 64 125 137 88 18 17 21 25 5 19 10 23 21 27 14 8 0 0 0 0 0 0 0
14 41 41 13 16 20 23 99 72 137 130 139 119 23 14 25 22 22 14 32 23 38 71 71 24 2 0 0 0 0 0 0
36 21 40 43 35 5 66 90 139 117 126 136 66 29 21 16 15 20 49 61 59 84 106 90 65 18 1 0 0 0 0 0
0 15 29 19 3 9 3 0 31 42 59 66 64 75 79 56 65 74 77 82 61 67 77 92 72 46 9 8 12 0 0 0
0 1 6 5 1 9 4 0 39 89 100 101 100 106 134 179 201 161 167 130 147 134 123 102 71 51 22 10 1 0 3 1
0 1 9 4 34 12 4 60 4 60 84 37 28 39 61 77 118 141 180 148 123 107 86 67 83 50 29 25 21 4 6 4
0 0 8 2 2 6 5 3 3 0 5 40 41 46 48 16 26 35 53 93 113 115 83 53 44 31 23 23 34 23 26 0
0 0 0 0 1 0 0 2 5 5 0 0 0 4 10 8 12 7 6 40 90 82 77 65 52 63 60 49 46 35 33 34
0 0 0 0 0 0 0 0 0 1 0 0 0 0 0 0 5 0 3 43 47 34 73 79 77 75 61 56 28 0 0 47
0 0 0 0 0 0 0 0 0 0 0 0 0 0 0 0 0 0 4 14 12 18 27 47 47 45 72 52 1 6 31 48
0 0 0 0 0 0 0 0 0 0 0 0 0 0 0 0 0 0 18 26 15 21 20 28 54 45 42 72 41 53 58 83

GFSFLT2_con_mucape_063.txt.gz
CAPE
1229 838 996 933 860 631 891 1021 1061 870 696 540 486 309 339 383 186 190 271 434 208 2 0 0 0 0 0 0 0 0 0 0
1216 703 986 938 570 577 416 574 742 660 496 341 235 221 298 234 126 261 411 377 140 0 0 0 0 0 0 0 0 0 0 1
955 452 475 554 268 191 187 203 325 443 408 279 196 401 165 14 17 158 352 148 25 0 0 7 0 0 0 0 0 0 0 0
433 379 279 167 124 48 23 45 87 168 337 297 223 103 0 0 5 44 121 107 73 13 11 5 0 0 0 0 0 0 0 1
137 47 150 120 91 15 15 12 96 118 214 204 159 33 0 3 0 3 50 65 37 8 1 0 0 0 0 0 0 0 0 2
34 73 59 45 40 17 20 6 2 87 143 256 164 1 1 0 0 3 8 0 35 13 0 0 0 0 0 0 0 0 0 0
22 39 40 2 6 5 29 11 3 20 142 233 71 9 5 11 2 1 0 0 2 0 0 0 0 0 0 0 0 0 0 0
27 19 38 28 6 0 21 9 4 63 153 231 114 43 19 12 7 0 0 0 0 0 0 0 0 0 0 0 0 0 0 0
37 28 13 9 2 0 0 4 3 35 167 208 128 70 79 48 14 0 0 0 6 0 0 0 0 0 0 0 0 0 0 0
6 14 24 29 2 12 1 4 48 12 59 130 121 100 65 33 6 3 6 6 16 6 10 19 1 0 0 0 0 0 0 0
21 21 50 31 24 8 3 3 69 24 3 45 90 82 69 58 19 26 28 35 32 35 51 53 37 10 1 0 0 0 0 0
3 21 62 24 5 1 11 3 64 67 46 21 76 56 51 71 63 57 47 38 52 56 72 85 71 62 30 6 0 0 0 0
2 36 19 2 0 12 4 1 65 106 75 28 79 51 63 121 128 94 90 115 86 57 56 83 82 83 53 18 0 4 6 0
0 10 10 7 10 4 11 0 5 57 73 46 72 65 86 124 155 178 134 148 114 75 66 77 67 93 79 35 0 0 0 4
0 0 1 3 16 12 5 5 77 56 72 60 86 107 148 182 189 200 206 256 231 175 83 86 110 52 59 31 0 0 0 2
0 0 0 4 18 3 0 9 7 5 45 57 56 99 138 118 110 121 175 225 180 141 58 103 111 83 50 35 25 0 0 2
0 0 3 0 9 8 6 0 0 8 0 53 82 72 53 61 55 95 130 184 208 215 112 121 121 94 64 28 28 19 9 1
0 0 0 1 0 5 12 12 8 3 7 0 46 47 42 64 50 76 114 120 140 190 187 131 98 91 74 47 50 41 25 19
0 0 0 0 3 4 2 3 3 5 7 3 9 23 22 34 44 51 57 79 115 170 175 128 96 45 53 34 42 27 45 16
0 0 0 0 0 0 0 0 0 0 1 1 0 14 25 10 26 34 32 48 91 137 131 124 61 20 32 5 43 44 43 37

GFSFLT2_con_mucape_066.txt.gz
CAPE
1413 993 874 801 663 1030 1042 1157 1156 1046 1089 1094 1007 819 686 656 623 621 531 191 49 6 5 0 0 0 0 0 0 0 0 1
1359 1691 1235 1048 1165 693 605 875 843 853 984 857 582 507 374 250 251 529 420 181 87 19 0 0 0 0 0 0 0 0 0 2
1352 1084 1089 905 731 749 674 598 515 605 730 490 402 486 266 140 148 390 261 126 88 16 0 0 0 0 0 0 0 0 2 2
1321 1095 1051 886 588 687 558 288 288 240 334 259 346 403 222 26 195 252 195 103 90 27 0 0 0 0 0 0 0 0 1 4
697 546 314 373 326 80 113 202 86 109 228 224 381 384 78 110 333 358 181 52 3 0 0 0 0 0 0 0 0 0 0 0
71 155 119 98 101 124 52 40 4 24 82 202 263 186 183 167 184 187 127 63 34 1 0 0 0 0 0 0 0 0 0 0
22 0 9 5 59 17 10 7 25 20 4 100 278 201 168 83 192 214 179 207 148 70 25 0 0 0 0 0 0 0 0 4
0 18 39 36 25 25 24 33 3 70 52 123 249 213 163 81 76 67 66 158 163 81 40 3 0 0 0 0 0 0 0 3
14 1 25 8 33 35 20 36 10 4 56 170 306 174 145 175 78 62 54 63 59 37 33 8 0 0 0 0 0 0 0 0
0 0 5 5 21 10 37 12 10 3 55 137 177 164 160 163 108 87 58 50 25 23 24 18 7 1 0 0 0 0 0 0
11 4 12 1 12 3 8 6 3 64 101 143 103 163 179 131 105 71 128 96 27 18 31 13 2 0 0 0 0 0 0 0
22 23 29 19 4 3 4 4 7 55 62 136 115 85 107 94 80 110 121 173 133 98 108 74 39 15 11 9 8 3 0 0
12 11 23 19 9 0 0 2 80 23 37 70 138 103 146 196 103 126 153 167 235 200 200 155 97 76 57 61 53 36 17 4
7 12 1 10 9 2 0 7 7 18 12 43 75 121 81 119 167 144 150 165 208 266 251 210 219 122 199 250 226 63 34 33
0 0 4 3 5 7 3 8 2 53 66 68 68 100 33 79 166 162 202 215 220 237 244 278 282 211 189 258 213 204 214 68
0 0 0 5 1 10 10 0 0 3 38 43 42 108 62 69 200 246 273 330 291 293 286 267 322 303 195 181 278 248 163 127
20 0 0 2 1 3 4 3 0 3 1 72 31 67 129 139 249 273 311 409 316 490 321 372 373 479 248 215 152 195 187 211
16 17 0 0 6 4 3 0 8 0 9 28 26 26 93 93 123 249 277 254 301 316 356 503 333 430 409 430 279 234 184 164
8 15 19 2 1 5 1 2 9 2 3 10 13 5 24 35 124 203 180 166 195 218 323 306 360 365 396 439 331 220 39 22
10 10 10 13 17 0 0 0 3 2 11 0 0 11 42 27 107 149 137 194 202 239 370 239 332 411 436 429 327 110 22 21

GFSFLT2_con_mucape_069.txt.gz
CAPE
1850 1752 1168 521 184 51 0 334 1180 1154 1197 1285 1106 834 754 840 741 377 148 94 51 9 5 0 0 0 0 0 0 6 4 1
1984 1781 1052 500 246 49 125 231 746 972 1147 1053 833 819 835 812 644 276 126 90 25 4 3 0 0 0 0 0 0 0 1 0
1693 1576 1517 990 680 665 428 450 261 784 961 707 724 901 766 634 339 173 88 27 7 2 0 0 0 0 0 0 0 6 4 0
1305 1341 1390 1189 945 679 652 321 599 651 730 429 415 548 682 557 332 127 46 0 0 0 0 0 0 0 0 0 6 13 6 0
831 898 1177 1291 1215 1165 681 593 324 222 246 378 373 302 156 511 455 98 0 0 0 0 0 0 0 0 0 7 6 20 10 2
580 643 640 323 800 415 348 488 143 64 16 79 84 111 145 338 317 37 0 0 0 0 0 18 0 0 0 0 3 19 7 2
63 1 165 98 63 129 284 64 44 40 23 3 17 75 150 310 247 90 21 73 0 0 21 6 1 0 0 0 5 21 10 3
13 5 1 16 163 39 20 83 43 13 5 19 44 73 179 259 236 279 167 164 88 39 44 5 0 0 0 0 2 4 18 15
21 0 4 0 9 6 5 12 15 9 22 49 72 121 236 208 328 285 272 191 287 176 67 3 0 0 0 0 0 0 1 25
24 0 0 1 1 0 11 23 36 16 18 11 46 187 304 325 262 193 244 283 251 151 55 10 0 0 0 0 0 0 0 0
3 0 1 3 3 26 43 11 9 20 7 10 74 189 241 282 237 260 391 274 264 189 116 61 29 13 0 0 0 0 0 0
6 3 5 1 0 1 8 2 4 4 4 55 136 149 201 187 207 302 253 163 125 189 200 122 100 56 1 0 0 0 0 0
3 3 14 9 2 0 2 4 2 9 8 56 135 169 171 208 166 248 268 259 214 308 280 342 186 145 19 0 0 0 0 0
0 0 15 10 6 1 0 4 1 1 4 49 134 184 152 143 144 167 208 273 386 389 341 302 246 274 123 184 134 31 29 26
0 0 3 0 7 0 0 7 1 0 2 0 73 128 120 121 182 218 215 316 410 443 478 436 251 349 276 367 189 173 259 153
0 0 3 0 0 0 0 0 0 0 0 2 2 121 92 117 173 181 275 338 401 439 437 464 238 218 261 235 376 358 249 104
0 0 2 0 0 0 0 1 1 2 2 0 0 62 125 78 122 154 144 353 389 498 374 372 351 178 157 446 341 218 298 191
21 0 0 0 0 0 1 33 0 0 0 3 0 35 155 144 96 102 160 237 366 292 198 191 224 377 224 363 311 178 168 263
16 14 6 0 0 2 18 0 0 2 3 29 2 4 61 140 81 39 27 64 125 224 117 188 239 364 375 302 242 359 364 406
51 13 7 2 0 0 13 0 0 0 13 60 6 3 8 61 66 38 102 97 162 167 244 132 286 199 347 312 441 398 449 520

GFSFLT2_con_mucape_072.txt.gz
CAPE
2276 1568 999 868 605 341 162 28 43 356 1147 1239 1028 780 692 751 655 540 364 199 86 9 0 0 0 0 0 0 0 19 0 0
1921 1825 1206 762 300 135 16 33 33 166 811 771 622 640 710 618 431 300 224 107 12 2 0 0 0 0 0 0 0 13 0 0
1734 1445 1468 824 370 166 79 22 0 5 742 549 519 580 602 336 165 134 127 29 6 1 0 0 0 0 0 0 1 1 0 0
1405 1151 1031 852 611 218 94 81 0 64 526 426 450 474 520 299 113 60 29 4 3 0 0 0 0 0 0 0 1 4 0 0
784 824 698 704 455 280 295 118 37 14 251 235 296 429 246 126 16 11 0 0 0 0 0 0 0 0 0 0 7 2 0 0
617 549 670 623 628 315 374 237 223 179 116 216 193 110 146 75 0 0 0 0 0 0 0 0 0 0 0 0 23 3 0 0
282 132 373 357 347 312 299 218 166 117 85 96 64 45 64 60 0 0 0 0 0 0 0 0 0 0 0 0 29 7 0 0
1 0 0 55 142 150 114 157 77 65 6 19 12 42 17 32 26 0 5 0 4 0 0 0 0 0 0 0 20 8 0 0
0 0 1 20 34 41 75 71 66 41 39 20 1 3 1 22 113 29 48 19 21 0 0 0 0 0 0 0 5 20 5 0
0 0 2 0 41 57 55 28 5 24 34 4 7 0 1 12 117 151 105 79 119 56 3 5 0 0 0 0 0 0 7 0
0 0 0 0 1 4 39 41 27 10 12 15 2 1 8 51 116 164 204 146 174 33 23 1 3 2 0 0 0 0 0 0
0 1 8 0 0 1 10 27 23 4 4 13 5 3 15 90 78 92 78 32 153 75 51 60 8 1 0 0 0 0 0 0
4 0 0 1 0 0 5 0 0 0 9 25 18 11 76 128 132 195 161 130 121 195 178 167 131 100 11 0 0 0 0 0
0 0 0 3 0 0 0 1 0 0 9 7 7 22 67 78 88 132 164 163 157 173 157 143 118 91 32 14 7 1 0 0
0 4 0 1 2 0 4 9 3 0 0 1 1 24 33 58 71 102 143 156 169 182 160 144 125 123 117 59 49 33 24 12
6 5 0 0 0 0 0 0 0 0 3 2 5 42 56 72 83 96 92 126 218 197 201 174 153 73 136 119 171 201 57 54
2 0 0 0 4 6 0 0 0 0 0 5 4 0 25 56 81 135 127 130 191 188 175 152 115 62 79 43 77 98 123 46
4 4 1 1 1 0 0 0 0 0 0 0 4 5 43 23 47 112 128 179 183 107 106 79 94 33 36 88 70 44 76 65
13 3 0 3 0 12 4 0 0 0 0 2 9 7 3 31 18 59 45 70 174 171 107 61 57 24 5 21 41 96 93 54
4 10 8 14 5 5 8 0 0 0 0 0 10 9 5 4 8 13 24 34 32 25 30 54 48 33 21 27 15 44 70 52

GFSFLT2_con_mucape_075.txt.gz
CAPE
1823 1534 1399 1497 1520 1251 763 189 107 37 3 475 779 900 755 736 635 572 488 317 132 52 14 1 0 0 0 0 0 0 0 0
1842 1554 1350 1027 873 919 471 161 73 45 29 73 354 559 635 593 456 388 322 218 60 27 3 0 0 0 0 0 0 0 0 0
1136 1416 1180 1051 696 448 332 152 41 6 13 0 313 343 288 206 207 231 117 36 34 5 0 0 0 0 0 0 0 0 0 0
1179 1142 860 878 686 312 149 71 34 29 1 1 219 201 115 115 70 54 20 7 5 0 0 0 0 0 0 0 0 0 0 0
693 406 484 447 533 316 143 98 76 22 12 7 135 111 62 6 3 2 3 0 0 0 0 0 0 0 0 0 0 0 0 0
409 390 348 355 306 224 90 40 44 30 86 59 120 42 13 0 1 1 1 0 0 0 0 0 0 0 0 0 0 0 0 0
267 306 333 434 341 219 141 69 54 23 110 110 75 33 20 0 0 0 0 0 0 0 0 0 0 0 0 0 0 0 0 0
80 27 72 228 287 138 162 136 63 49 88 67 73 68 37 0 6 0 0 0 0 0 0 0 0 0 0 0 0 0 0 0
2 0 0 3 31 76 83 75 79 61 68 14 62 60 13 0 0 0 0 0 0 0 0 0 0 0 0 0 2 0 0 0
2 0 0 2 2 25 48 55 48 32 12 1 31 15 1 1 6 0 0 0 0 0 4 0 0 0 0 0 0 0 0 0
0 0 0 0 7 14 39 62 18 31 35 13 0 11 2 2 2 3 22 7 32 22 27 0 0 0 0 0 0 0 0 0
0 0 0 0 0 11 13 36 13 33 25 10 20 1 2 0 17 37 66 37 104 52 33 0 0 0 0 0 0 0 0 0
4 0 0 0 0 0 19 16 12 23 37 3 1 1 6 4 5 58 72 89 77 66 36 0 0 0 0 0 0 0 0 0
2 0 0 0 0 0 16 21 26 4 9 3 7 13 4 8 8 17 49 56 67 46 46 56 14 2 0 0 0 0 0 0
6 0 0 0 0 0 0 1 12 17 0 9 6 13 9 9 6 1 18 30 38 41 64 54 50 21 0 3 0 0 0 0
7 4 0 0 0 0 0 0 0 0 0 6 31 24 11 14 15 43 29 0 0 71 72 63 46 15 26 49 53 37 43 31
2 0 6 0 0 0 0 1 0 1 5 19 27 22 13 18 10 8 47 69 85 123 120 104 74 69 46 18 42 57 49 7
0 4 1 0 2 0 0 0 0 0 0 6 15 22 12 6 12 22 30 71 103 109 157 131 131 65 47 53 32 28 26 30
0 2 0 0 3 7 1 0 1 1 0 0 1 13 9 3 0 25 35 39 77 114 142 149 117 60 30 36 43 31 39 46
1 4 1 0 4 3 8 0 0 0 0 0 0 12 18 20 14 41 59 63 76 108 107 93 63 44 50 31 10 28 26 21

GFSFLT2_con_mucape_078.txt.gz
CAPE
1656 1623 2016 2109 1901 1451 768 626 296 78 43 18 27 393 503 1169 1117 922 636 555 517 257 41 6 6 0 0 0 0 0 0 0
1676 1553 1971 1800 1843 1273 773 566 341 64 60 33 1 254 410 676 766 568 433 369 282 122 2 8 0 0 0 0 0 0 0 0
1604 1224 1220 1333 1239 1110 666 482 193 61 19 0 79 109 211 390 357 355 302 199 149 47 0 0 0 0 0 0 0 0 0 0
921 1379 1216 962 1002 800 625 327 83 49 3 0 87 151 194 231 236 188 115 106 67 3 0 0 0 0 0 0 0 0 0 0
1042 1128 1145 829 722 552 135 116 99 36 21 12 123 149 137 181 65 26 2 4 1 0 0 0 0 0 0 0 0 0 0 0
738 497 454 509 489 444 88 68 46 19 30 18 87 105 94 48 4 1 0 0 0 0 0 0 0 0 0 0 0 0 0 0
374 386 375 402 363 217 89 68 70 50 6 10 5 71 18 25 0 0 0 0 0 0 0 0 0 0 0 0 0 0 0 0
254 273 324 436 311 270 141 76 59 44 96 16 40 16 1 0 0 0 0 0 0 0 0 0 0 0 0 0 0 0 0 0
77 26 56 218 350 327 107 78 54 55 118 72 52 27 0 0 0 0 0 0 0 0 0 0 0 0 0 0 0 0 0 0
46 3 0 1 41 165 180 99 38 38 82 67 51 27 0 0 0 3 0 0 0 0 0 0 0 0 0 0 0 0 0 0
4 0 0 2 3 50 94 103 62 32 56 50 29 15 0 0 6 1 0 0 0 0 0 0 0 0 0 0 0 0 0 0
0 0 4 0 3 27 43 76 70 35 35 36 11 29 3 0 2 1 0 0 0 0 0 0 0 0 0 0 0 0 0 0
0 0 0 0 7 9 27 51 59 6 32 17 12 25 5 6 4 2 12 0 0 5 0 0 0 0 0 0 0 0 0 0
0 0 0 4 3 3 6 27 38 11 9 2 35 12 2 3 11 4 6 0 6 14 3 11 0 0 0 0 0 0 13 12
0 0 0 0 0 0 10 32 14 6 10 7 11 15 6 1 0 9 19 14 13 15 12 21 2 0 7 0 0 0 0 0
0 0 0 0 0 1 0 3 0 10 24 21 9 1 10 8 1 20 11 58 30 34 33 39 10 9 14 2 1 0 0 0
0 1 0 0 0 0 0 0 0 12 8 8 7 8 11 11 5 13 31 49 64 47 50 41 39 4 0 34 44 29 47 31
1 5 1 0 0 0 0 0 0 0 0 0 0 6 5 4 17 8 15 7 9 21 25 34 66 59 34 30 51 61 40 34
1 8 2 2 0 0 0 0 0 0 0 0 2 5 4 19 9 13 46 46 18 1 26 65 68 66 60 44 47 48 42 32
0 0 3 3 2 2 1 0 0 0 0 0 0 1 17 32 25 19 9 24 10 30 52 91 111 107 95 62 54 33 31 21

GFSFLT2_con_mucape_081.txt.gz
CAPE
1631 2138 1833 1834 1924 1723 1213 973 553 445 109 56 208 202 292 597 1027 911 1034 886 607 503 261 38 126 18 0 0 0 0 0 0
1681 1840 2076 1959 1600 1539 1073 879 480 241 147 23 46 40 236 433 415 596 702 667 339 219 33 50 45 1 0 0 0 0 0 0
1610 1516 1572 1784 1786 1367 1234 937 495 188 67 31 19 22 107 186 190 399 532 400 234 81 14 12 6 0 0 0 0 0 0 0
1514 1248 1077 1261 1342 1346 872 683 560 147 91 54 15 26 85 132 154 270 287 237 125 13 0 0 0 0 0 0 0 0 0 0
1163 1288 1140 986 920 776 672 668 430 243 103 59 45 69 86 100 146 173 183 141 5 0 0 0 0 0 0 0 0 0 0 0
778 981 1005 1034 843 645 444 561 197 79 71 42 67 65 120 123 113 125 91 61 0 0 0 0 0 0 0 0 0 0 0 0
700 880 775 730 551 478 491 49 47 67 50 31 63 58 88 134 96 80 12 38 0 0 0 0 1 0 0 0 0 0 0 0
429 332 355 240 392 246 181 36 40 54 44 48 61 83 139 95 50 14 4 14 3 0 0 0 0 0 0 0 0 0 0 0
199 255 359 279 373 157 241 39 24 42 47 58 53 125 90 41 50 0 1 4 11 0 0 0 0 0 0 0 0 0 0 0
149 139 205 441 218 167 101 75 42 41 59 41 15 63 60 65 23 4 0 0 0 0 0 0 0 0 1 0 0 0 0 0
73 2 0 32 354 101 168 108 51 42 94 34 26 14 48 64 8 0 0 0 0 0 0 0 0 0 2 0 0 0 0 0
93 5 0 0 4 54 144 69 62 36 71 30 8 3 76 75 2 0 0 0 0 0 0 0 0 0 0 2 0 0 0 0
93 32 1 4 1 7 5 45 33 15 22 34 40 68 62 0 0 8 1 0 0 0 2 0 0 0 3 10 4 0 0 0
102 31 1 2 3 3 5 29 37 37 36 32 62 47 7 4 0 9 7 0 0 0 0 1 2 0 5 24 6 6 3 0
113 0 0 0 0 0 2 12 2 2 8 45 63 25 12 5 0 4 7 2 1 0 0 0 0 0 2 18 3 1 14 19
108 0 0 0 0 0 4 0 0 19 31 53 24 10 8 7 8 10 16 14 0 4 12 3 5 5 3 10 1 0 5 0
84 0 0 0 0 3 0 5 0 25 5 20 26 12 45 9 8 2 2 8 19 37 46 46 45 18 3 0 0 2 6 0
15 0 0 0 0 0 0 0 0 0 8 4 39 21 11 6 12 6 2 22 11 45 66 61 48 35 43 1 9 21 25 17
0 0 0 0 0 0 0 0 0 0 1 3 8 15 16 25 11 9 5 4 70 64 60 73 78 43 30 15 14 30 29 30
0 0 0 1 0 3 0 0 0 0 0 1 2 4 5 8 18 23 15 4 22 68 52 50 54 36 46 32 45 49 39 46

GFSFLT2_con_mucape_084.txt.gz
CAPE
2224 2000 1729 1573 1812 1568 1532 1182 1192 833 744 775 922 814 753 726 1080 1027 703 950 902 703 493 334 168 71 30 16 4 0 0 0
1875 2046 2506 1670 1636 1436 1374 996 841 569 339 349 249 238 250 418 652 636 907 708 755 514 209 252 115 28 19 14 1 0 0 0
1472 1983 2450 1682 1578 1492 1249 982 701 486 261 120 77 39 67 132 271 370 246 343 445 210 237 154 46 12 0 0 0 0 0 0
1651 1644 2151 1889 1465 1406 1293 992 871 549 290 84 58 51 28 19 147 133 205 194 232 168 132 39 0 0 0 0 0 0 0 0
1601 1630 1549 1321 1637 1572 1301 1065 619 366 305 71 44 29 53 55 94 92 80 110 193 91 37 26 13 0 0 0 0 0 0 0
1499 1503 1209 893 954 1345 1111 892 515 269 320 55 63 55 28 81 86 66 52 66 121 85 8 11 13 0 0 0 0 0 0 0
1105 1297 1149 941 926 968 918 782 497 302 245 59 57 41 34 27 126 58 59 67 68 11 0 0 0 0 0 0 0 0 0 0
907 797 817 584 684 548 558 475 390 295 321 82 73 48 72 70 108 69 23 41 25 9 11 1 5 0 0 0 0 0 0 0
811 713 803 886 689 707 423 419 548 257 156 57 61 39 62 79 82 59 52 46 6 0 3 0 0 0 0 0 0 0 0 0
581 546 304 498 532 266 167 85 192 32 41 40 54 34 52 74 71 104 66 0 1 0 0 0 0 0 0 0 0 0 0 0
342 195 255 394 435 179 151 66 122 35 23 38 53 52 72 68 51 66 58 31 2 0 0 0 0 0 0 0 0 0 0 0
188 139 138 257 175 238 31 139 60 23 11 16 38 23 76 69 34 40 67 5 32 2 0 0 1 10 0 0 0 0 0 0
146 121 97 5 75 18 25 16 30 72 34 72 30 4 34 37 28 33 71 1 10 0 0 7 4 5 0 2 0 0 0 0
129 151 91 2 0 2 3 17 18 35 35 28 6 35 34 41 28 55 23 0 7 0 0 0 1 26 7 0 0 0 0 1
136 153 106 2 3 3 5 24 29 26 25 31 49 27 22 69 55 88 0 0 0 0 0 0 0 11 13 1 0 2 3 8
155 160 96 2 2 3 1 0 0 6 20 21 22 21 51 76 71 14 10 0 0 0 0 0 8 10 19 15 16 7 16 18
160 166 37 0 3 0 0 7 9 4 22 5 29 55 59 56 15 0 0 0 0 3 0 29 15 13 11 18 18 14 0 0
152 170 0 1 0 1 4 5 0 16 10 38 19 22 57 25 6 6 12 10 8 4 34 47 42 27 6 13 14 20 14 10
143 161 1 2 0 1 3 4 1 1 23 19 37 39 28 14 7 17 12 21 5 0 0 64 58 29 30 21 22 17 21 18
141 153 7 1 0 0 6 9 0 7 0 3 33 31 35 30 31 23 15 22 17 0 82 75 92 84 84 71 38 34 14 17

GFSFLT2_con_mucape_087.txt.gz
CAPE
1383 1998 1767 1353 1513 1672 1586 1608 1633 1697 1616 1445 1395 1135 980 1132 1030 1000 939 1284 1125 972 831 612 505 249 122 58 35 17 135 130
1846 1769 2068 2194 1869 1557 1509 1479 1492 1402 1209 944 785 716 849 891 862 977 1021 1165 1023 777 572 411 239 144 95 63 46 18 25 10
2127 1644 2159 2006 1905 1724 1417 1399 1194 957 721 424 412 705 664 572 379 409 445 655 610 494 328 252 170 111 69 40 29 0 0 7
1765 2007 1908 1987 1485 1348 1357 1235 1094 701 689 421 665 581 455 208 247 176 278 375 261 280 197 201 126 88 56 43 13 2 2 0
1507 1986 2075 2416 1661 1514 1572 1195 1067 737 539 433 244 180 85 67 143 127 149 110 95 255 185 200 109 72 30 17 0 0 0 1
1383 1652 2124 2059 2066 1654 1220 1146 920 1011 624 257 265 83 47 41 310 299 107 76 81 241 223 101 31 6 4 0 0 0 0 1
1197 1532 1693 1810 1961 1617 1332 1108 1056 921 508 165 148 97 34 86 228 233 78 51 60 170 85 15 11 0 0 0 0 0 0 5
1358 1344 1543 1467 1267 1261 1026 1020 727 633 577 257 143 49 47 161 391 118 112 26 35 70 85 23 17 0 0 0 0 0 0 13
1050 1280 1513 1187 955 742 728 701 544 380 536 262 231 94 137 200 153 169 36 32 16 109 101 67 0 0 0 0 0 0 2 15
757 904 1061 992 595 453 281 689 509 433 395 342 147 105 160 124 108 60 30 36 57 105 63 0 0 2 0 0 0 0 15 19
610 786 879 695 606 383 428 598 376 274 200 135 217 143 96 114 42 22 23 42 62 87 49 25 4 1 0 0 0 0 10 11
517 598 694 577 326 200 203 83 94 31 86 82 91 76 137 99 48 41 27 42 40 89 43 7 0 1 0 1 4 5 8 12
307 475 477 210 257 229 104 17 29 48 81 56 49 68 93 83 56 44 20 41 47 34 0 0 5 0 3 0 0 0 7 8
275 419 268 174 184 197 134 49 34 20 58 66 30 44 90 69 50 38 19 46 57 34 0 1 1 1 0 1 1 1 10 6
268 304 254 181 145 3 23 50 25 36 28 44 26 25 42 57 37 22 24 40 8 10 3 0 0 1 0 25 36 39 5 8
211 275 210 196 118 9 13 14 25 2 41 1 17 40 36 18 56 15 19 20 49 27 5 14 28 22 14 13 23 40 80 51
216 222 196 197 5 5 15 3 14 1 0 15 25 51 54 13 21 43 24 37 45 0 26 15 43 46 20 33 32 18 43 57
197 183 199 182 1 7 1 20 15 0 8 5 17 47 26 68 69 52 40 67 1 0 30 17 6 38 68 111 57 46 36 88
163 181 185 164 5 2 5 2 13 3 12 7 38 22 14 57 50 56 45 7 0 0 3 14 0 36 70 81 87 112 109 84
155 188 155 53 3 2 4 3 2 3 10 12 20 27 27 38 53 40 1 0 1 0 0 16 30 82 75 76 91 78 84 83

GFSFLT2_con_mucape_090.txt.gz
CAPE
1865 1732 1482 1229 1497 1773 1709 1416 1689 2018 1999 1932 1779 1454 1274 1457 1385 1557 1317 1364 1330 1272 1047 829 702 500 406 343 234 189 358 359
2072 1773 1835 1937 1925 1531 1665 1560 1501 1640 1715 1666 1356 1187 1115 1221 1123 1126 1272 1317 1222 1040 694 633 493 366 290 176 97 157 242 212
2208 1924 2127 1955 2180 2041 1446 1537 1619 1654 1578 1554 1523 1831 1431 1006 612 464 629 794 890 720 558 455 367 257 191 113 71 222 193 110
2088 2316 2177 2225 2078 2319 2082 2011 1981 2012 1857 1611 1895 1492 1308 753 325 165 336 453 588 415 318 291 315 337 208 114 278 167 111 45
2529 2180 2088 2353 2307 2090 2199 2311 2135 1833 1726 1667 1554 1436 950 765 483 442 499 321 296 219 191 482 366 349 316 275 139 197 75 72
1879 2246 2256 2271 2323 1790 1700 1756 1976 1726 1657 1252 1231 820 855 642 171 171 240 354 231 140 230 520 308 246 271 219 176 117 64 40
2206 1861 2051 2173 1971 1529 1385 1381 1414 1468 1406 1083 773 510 479 280 117 197 481 184 106 89 183 316 313 237 197 193 138 55 41 20
2401 1752 1839 2029 1953 1719 1531 1483 1053 1097 1188 760 890 384 258 180 214 407 544 231 117 98 134 311 280 232 222 172 71 31 20 5
2155 2034 1551 2050 2351 1636 1485 1290 1108 842 735 548 515 313 153 200 180 166 392 186 46 74 215 303 250 200 179 124 29 16 9 8
1811 1909 1461 1626 1865 1885 1295 1216 992 676 513 272 208 185 109 444 150 108 235 94 38 65 202 273 207 172 138 96 14 9 12 25
1532 2061 1490 1481 1619 1476 1340 884 644 508 386 194 106 107 79 202 260 143 75 34 37 87 162 213 166 148 93 48 19 28 18 9
1150 1824 1557 1258 1277 1253 1020 728 358 288 160 110 213 53 80 141 98 78 48 35 29 59 165 201 187 140 64 34 75 25 17 9
953 1634 1215 1127 1126 1046 820 570 281 114 40 88 156 93 88 136 82 40 21 30 26 127 160 214 150 159 74 60 88 19 21 29
909 1394 953 1183 1404 1239 732 358 282 112 12 7 21 44 91 108 72 40 18 25 19 201 188 176 180 172 93 78 40 51 22 23
829 1213 949 1288 1056 817 565 444 242 190 30 8 15 32 112 80 50 51 22 16 8 130 201 150 110 162 136 93 67 26 42 31
743 978 1177 1018 845 716 608 424 182 129 23 10 44 46 42 78 42 44 33 24 42 130 221 212 196 135 136 103 59 44 92 87
644 941 873 686 582 565 370 186 113 234 188 53 33 5 6 47 45 40 45 11 109 161 187 189 113 154 113 140 161 183 162 100
382 747 731 558 474 328 276 172 32 103 21 3 0 14 16 22 23 32 23 12 73 89 42 196 194 212 148 149 153 133 177 143
173 535 505 340 307 217 146 76 81 92 7 0 4 11 12 22 14 18 20 28 34 38 61 143 130 202 236 208 213 168 164 171
197 169 362 204 232 85 51 132 73 53 6 5 12 3 6 5 10 18 3 4 43 50 60 27 66 140 176 183 204 224 195 168

GFSFLT2_con_mucape_093.txt.gz
CAPE
2197 1610 1402 1196 1488 1733 1430 1659 2021 2123 2066 1993 1998 1861 1592 1818 1747 1541 1422 1624 1630 1440 1224 1021 922 746 641 550 452 309 708 441
2382 2152 1868 1841 1812 1591 1607 1549 1763 2035 1903 1662 1518 1299 1282 1316 1285 1374 1329 1386 1308 1215 1002 846 698 592 523 362 390 205 291 338
2567 2255 2121 2067 1942 1796 1575 1562 1499 1749 1830 1667 1484 1841 1787 1454 1138 1053 956 847 673 704 682 669 512 469 401 289 228 372 420 175
2719 2495 2266 2183 1746 2093 1925 1915 1941 2059 1922 1894 2050 1668 1687 1164 752 489 384 411 479 449 363 483 397 504 366 216 347 364 106 67
2527 2554 2557 2417 1875 1950 1968 2244 1990 2053 2092 1764 1601 1643 1691 1669 967 417 301 246 598 355 213 313 644 782 644 493 336 135 44 29
2679 2437 2592 2683 2328 1987 1892 1888 2424 2185 2260 2459 2215 1873 1888 1475 934 527 300 209 517 252 199 220 338 457 589 372 188 122 113 58
2574 2270 2534 2572 2833 2402 2267 2244 2082 2172 2363 2141 1929 1676 1612 1152 527 529 663 325 120 87 119 165 168 278 320 296 243 224 78 82
2880 2628 2523 2468 2611 2528 2424 2207 2014 2102 1972 2151 1822 1774 1399 864 563 367 262 201 114 94 103 107 139 135 298 195 186 127 42 33
2567 3174 2359 2583 2341 2289 2097 2003 1978 1869 1910 2077 1796 1522 1158 817 445 439 805 177 279 84 80 61 99 140 228 229 93 42 27 15
637 2280 2235 2222 1986 2153 2004 1905 1983 1876 1555 1687 1552 1269 855 525 194 481 261 170 148 72 65 59 67 107 179 105 50 44 27 16
332 2034 2375 1847 2248 1920 1838 1857 1783 1818 1690 1347 1075 838 639 341 736 226 122 57 92 162 52 57 69 135 127 140 58 17 20 14
146 1649 2566 1718 1884 1868 1607 1832 1566 1233 1228 1165 732 629 485 620 327 121 282 39 71 100 48 15 104 148 94 65 49 44 15 13
214 1164 2517 1913 1856 1875 1375 1511 1175 1265 1047 882 559 373 262 110 85 137 91 16 33 19 41 42 63 282 148 90 129 112 61 26
256 794 1806 1735 1742 1715 1747 1402 1243 932 739 363 333 232 132 21 98 57 19 25 35 23 32 32 55 154 124 80 77 51 67 41
172 707 1490 1616 1691 1727 1610 1247 811 819 568 544 402 226 65 45 87 46 37 30 30 13 39 32 105 94 125 18 51 39 36 20
265 677 1516 1300 1694 1659 1550 807 577 639 615 417 122 15 5 47 36 59 62 23 7 29 36 47 92 111 137 150 83 55 41 33
426 749 1364 1375 1735 1562 1583 1188 1015 662 586 499 179 6 11 76 34 47 52 14 7 25 16 118 112 161 146 137 162 127 150 104
721 912 1183 1302 1485 1434 1379 1136 809 394 609 615 184 43 5 22 39 42 31 20 24 6 64 91 133 236 219 173 168 132 120 127
921 939 1146 1229 1265 1235 1147 878 594 382 361 378 8 5 4 5 26 24 14 23 19 25 63 172 271 256 278 138 190 222 193 146
447 954 1039 1136 1136 1045 753 557 342 354 347 50 0 0 3 2 22 13 24 16 29 36 120 185 174 227 161 144 150 243 202 178